GFSNE_925_spd_000.txt.gz
Wind_Speed
33 34 35 34 31 28 26 25 20 14 15 21 21 17 25 24 34 42 45 37 48 54 53 51 49 43 47 50 49 48 46 44 41 37 32 27 25 24
33 34 35 34 33 32 29 27 27 23 15 26 24 16 14 18 21 25 36 41 35 43 50 51 51 50 44 47 50 50 48 47 43 38 36 29 27 23
35 36 37 37 36 34 33 31 31 29 16 27 28 26 20 16 21 26 16 30 38 38 38 49 50 50 50 48 50 53 52 48 43 40 37 31 27 24
34 36 38 38 40 38 36 34 32 32 30 19 28 26 23 20 19 25 26 24 27 38 41 37 46 50 50 52 55 56 54 49 45 41 36 31 27 24
36 36 38 38 38 37 38 35 34 35 34 30 27 28 23 19 16 19 23 26 24 32 31 40 40 47 51 56 60 58 53 48 42 34 30 29 28 28
34 35 37 37 35 36 37 37 35 33 32 31 29 27 25 18 16 16 16 21 24 23 29 39 45 45 52 60 60 57 53 45 39 33 27 27 32 32
32 34 35 37 37 35 32 33 33 29 29 29 25 25 24 21 17 13 14 17 15 19 24 28 37 51 56 61 56 54 49 44 38 27 32 34 38 36
32 34 34 35 36 37 40 39 33 24 27 26 26 22 27 26 21 19 13 8 3 15 22 19 19 33 44 47 57 51 43 40 35 36 36 41 42 32
32 32 32 32 32 33 33 38 42 40 41 31 27 29 29 27 25 19 17 17 9 18 22 9 15 16 23 40 51 49 43 38 36 33 39 44 34 28
34 34 34 33 32 32 31 31 33 35 42 43 43 33 31 28 27 23 21 14 10 20 21 4 17 8 16 31 38 39 38 33 33 36 39 35 30 27
32 33 34 34 34 35 34 32 31 31 29 37 41 41 33 24 14 23 21 21 4 11 21 9 12 15 11 15 22 27 26 28 32 33 31 28 26 23
28 30 32 36 37 36 35 32 29 30 27 21 30 37 35 31 26 18 26 22 10 7 18 10 23 13 6 12 22 24 26 27 29 27 27 25 24 18
25 25 26 31 38 42 41 35 34 31 27 26 24 23 27 33 29 27 19 30 22 7 21 20 20 15 7 9 18 25 32 30 27 23 21 22 22 16
22 22 23 23 28 35 42 39 39 31 26 22 24 22 21 25 29 28 25 24 30 24 27 36 17 26 15 13 10 20 25 28 24 18 17 18 21 25
19 20 26 29 35 34 39 39 39 31 25 24 18 22 23 24 25 22 22 25 19 14 26 32 21 28 23 17 18 21 23 19 19 21 20 19 17 17
15 18 18 20 11 8 14 33 30 28 26 23 23 21 19 19 22 23 21 26 25 22 23 19 24 28 16 17 25 24 20 12 20 18 17 15 16 15
15 11 10 11 10 9 8 17 23 24 23 23 13 17 16 16 16 21 27 26 17 20 20 23 22 19 18 22 19 24 23 14 23 19 18 17 16 15
7 10 11 13 13 12 10 9 17 19 18 16 20 18 18 17 14 15 20 22 24 23 25 27 28 27 23 15 13 22 20 18 21 20 18 16 15 15
15 15 14 14 14 14 14 13 14 13 15 15 16 16 18 18 20 19 19 22 23 23 23 26 26 25 11 9 10 15 20 21 20 18 16 15 15 14
20 18 17 17 16 15 15 15 14 14 15 15 16 16 17 19 20 19 21 23 24 24 23 21 20 19 16 11 11 11 14 19 18 16 15 12 11 12
19 18 18 19 18 17 16 16 16 16 16 16 16 17 18 19 20 21 22 22 24 24 22 18 11 16 24 23 17 16 10 14 13 13 14 12 11 10
17 18 18 18 18 19 19 18 18 18 18 18 19 18 19 20 21 22 23 22 20 21 21 20 17 16 13 16 18 17 14 9 10 14 14 10 4 8
17 16 15 17 18 18 18 19 20 19 18 18 19 19 19 21 21 21 20 20 21 21 20 19 16 15 16 17 17 15 13 13 11 8 5 9 12 11

GFSNE_925_spd_006.txt.gz
Wind_Speed
28 29 30 28 28 28 30 30 23 15 14 20 22 22 24 22 29 32 30 29 33 33 33 37 40 45 55 57 57 57 55 53 53 51 50 48 46 45
28 28 28 28 29 29 29 29 28 25 15 26 26 25 24 30 25 25 28 27 29 31 37 31 34 39 49 59 61 61 59 57 56 54 54 52 49 47
31 32 33 32 33 32 31 31 30 29 15 29 28 28 25 23 29 25 28 29 26 26 24 27 23 31 36 56 66 65 63 61 60 59 59 56 53 50
30 30 31 31 31 31 30 31 30 30 27 21 28 26 28 29 30 34 29 31 30 29 32 33 33 31 23 26 58 68 66 65 62 63 65 64 57 53
31 30 31 31 32 32 32 32 30 29 28 26 31 31 30 26 27 28 33 30 29 23 27 30 35 34 28 28 32 63 68 66 66 63 63 62 62 61
28 28 28 27 27 28 30 31 29 28 25 23 27 29 27 27 28 26 28 34 34 32 28 31 31 34 39 31 24 38 60 66 69 67 63 60 60 57
28 29 30 32 34 34 32 32 31 29 26 21 21 24 21 22 20 25 25 28 31 24 26 30 31 30 33 36 38 33 48 63 69 69 70 68 61 54
28 30 34 35 37 38 39 40 38 34 32 26 22 18 16 19 23 25 25 17 6 20 21 25 26 30 28 30 33 31 35 58 68 71 69 65 63 63
31 31 32 32 33 34 35 37 39 42 43 37 34 33 28 21 21 19 13 10 16 16 14 13 19 20 22 22 30 28 31 53 63 67 70 67 69 65
33 33 33 35 35 35 35 34 33 32 35 40 40 38 39 33 31 24 10 18 17 18 19 5 9 5 10 12 21 24 27 48 59 69 73 73 68 63
35 35 34 35 36 35 36 33 33 34 34 34 36 36 36 35 36 32 25 11 4 6 16 9 6 2 2 1 6 17 26 39 56 62 71 72 65 58
26 25 28 31 38 38 35 32 29 30 28 31 32 33 34 37 38 35 28 21 13 4 15 10 9 6 2 4 5 11 19 29 37 64 72 69 62 52
28 28 26 27 27 30 36 35 33 31 28 30 28 27 28 28 31 33 32 30 23 15 11 19 11 9 4 2 6 15 22 27 31 26 45 58 54 56
30 27 26 27 28 26 25 26 27 28 26 25 22 23 22 23 26 26 27 33 32 28 16 29 11 18 10 3 3 14 24 28 37 37 34 42 41 39
28 26 26 25 25 28 30 33 36 30 27 23 22 18 20 26 24 25 22 29 25 23 20 27 21 24 21 14 13 14 19 20 27 34 34 30 32 30
25 26 25 25 22 23 26 30 31 29 28 25 19 19 18 19 20 20 18 20 20 12 15 21 15 16 13 15 23 21 21 12 30 30 31 28 27 27
21 18 17 15 15 19 25 7 5 7 17 18 17 15 14 20 17 16 20 19 12 14 12 12 12 15 14 23 14 20 20 22 27 33 33 26 28 31
18 15 16 18 16 17 20 10 5 9 11 14 13 12 11 9 17 19 21 18 16 16 20 24 25 21 17 10 18 22 19 22 24 30 29 23 21 30
17 17 18 17 17 19 20 20 16 5 6 9 11 5 17 14 15 15 13 15 17 20 17 22 22 19 6 3 5 17 21 23 25 24 26 21 21 25
18 17 17 21 18 18 20 21 20 20 18 17 10 16 15 16 12 10 16 15 16 16 19 20 17 14 10 6 5 7 20 25 27 23 19 18 16 21
21 22 23 20 22 22 20 22 22 21 21 17 18 15 10 9 12 13 14 19 20 17 15 12 15 13 21 21 13 10 18 19 27 26 24 20 15 15
23 23 25 24 22 22 22 22 23 23 20 20 20 21 18 17 17 17 17 17 16 18 20 22 21 23 19 15 14 13 16 20 20 17 17 15 11 6
24 24 25 25 26 24 22 21 23 23 24 20 19 19 21 23 21 21 23 23 21 20 18 18 17 18 17 19 21 16 18 19 17 19 15 9 9 7

GFSNE_925_spd_012.txt.gz
Wind_Speed
28 30 30 30 29 29 28 24 18 11 11 18 18 18 18 22 24 26 20 20 20 17 20 21 17 16 15 17 19 17 33 27 57 57 56 54 53 52
29 30 31 30 29 29 29 27 25 21 13 20 23 23 24 25 29 35 37 35 33 27 24 18 18 19 14 10 12 18 19 20 13 59 57 56 55 54
26 28 30 31 30 29 27 28 26 23 15 22 24 24 25 26 29 30 30 34 34 33 24 22 21 20 18 15 17 18 17 18 20 12 58 59 59 58
30 29 30 28 28 28 27 27 27 27 26 20 24 24 23 21 20 22 26 28 32 33 31 31 30 23 18 20 19 17 17 17 19 27 14 61 63 63
29 26 25 22 24 24 21 21 23 23 23 22 22 22 24 26 26 29 31 32 32 34 35 32 31 23 22 22 24 24 22 22 21 23 27 24 61 64
21 25 28 29 28 27 27 27 25 25 26 26 26 24 23 23 25 24 23 28 33 32 34 34 30 27 25 28 26 27 23 23 25 23 26 23 30 59
33 33 33 32 31 32 30 30 28 27 28 26 25 22 22 21 20 21 22 23 25 26 30 33 33 29 30 29 26 25 26 26 24 26 27 28 24 28
28 27 29 30 31 32 32 33 33 30 28 25 23 20 21 19 20 20 21 15 6 11 13 28 27 27 28 29 27 27 26 24 26 27 28 30 28 30
29 30 30 28 28 30 32 33 33 35 36 33 28 26 23 20 21 21 22 20 21 23 18 13 18 20 22 24 25 26 26 28 28 29 30 30 32 32
30 30 29 29 29 30 30 32 29 31 32 31 32 33 31 28 26 27 26 26 29 26 21 10 14 21 22 23 23 25 26 27 30 31 32 33 35 34
28 29 28 30 32 32 32 30 30 31 34 33 35 34 31 29 29 27 23 19 11 19 23 22 21 18 19 22 23 25 26 27 30 30 31 32 35 37
28 28 28 31 34 35 33 30 27 28 25 27 26 27 32 35 35 33 25 20 16 7 23 20 18 9 6 12 17 22 24 23 27 31 30 33 35 38
27 28 27 30 31 33 32 28 28 29 26 25 25 24 25 27 29 30 32 28 20 18 17 23 18 20 12 6 11 16 18 21 24 28 27 29 35 40
27 26 27 26 26 25 21 23 26 28 27 25 22 21 22 23 27 28 29 31 29 25 17 23 20 16 8 3 4 11 16 20 21 23 24 29 30 32
19 22 22 22 21 19 19 18 19 20 22 21 21 22 22 24 24 24 25 26 28 31 31 32 28 26 28 15 5 6 7 10 13 14 12 15 20 22
16 23 21 20 21 20 21 18 14 14 17 18 20 21 19 18 21 26 19 18 19 20 27 31 32 30 23 24 19 14 14 5 7 8 3 6 14 21
18 17 22 23 21 22 22 20 20 16 14 8 12 13 15 17 17 21 18 18 17 18 18 22 30 29 24 18 11 16 13 8 7 7 7 9 11 16
15 16 17 19 19 19 20 20 20 20 15 8 4 8 12 14 16 17 19 16 12 12 11 17 23 17 11 5 9 7 9 7 8 11 11 11 10 12
15 16 18 18 18 19 19 19 18 22 17 10 4 3 6 12 13 13 13 12 8 11 13 17 17 13 3 2 3 6 9 10 12 11 13 6 7 12
17 16 17 20 20 19 20 20 22 23 25 21 13 6 3 2 3 7 9 5 9 7 9 11 12 10 5 6 4 4 5 12 14 13 16 16 12 12
17 17 18 19 20 21 21 21 19 21 23 22 20 14 10 5 6 5 3 4 8 7 6 6 5 9 10 14 8 8 11 7 11 15 19 16 9 7
18 17 19 19 20 21 22 23 21 20 22 21 20 17 14 8 6 5 5 6 6 7 7 10 11 13 7 5 5 10 15 25 21 18 13 4 7 4
18 17 19 20 21 22 22 22 22 22 21 20 20 18 17 16 13 12 11 11 12 13 13 13 10 10 8 13 16 10 15 14 16 23 20 15 5 4

GFSNE_925_spd_015.txt.gz
Wind_Speed
18 19 20 21 21 21 22 20 13 11 11 19 20 20 23 24 27 27 30 32 29 27 25 20 20 15 13 11 12 13 11 12 17 25 56 54 51 49
18 18 19 21 23 24 24 24 21 19 12 19 22 24 24 24 23 23 23 26 29 29 26 24 23 18 15 13 10 10 9 11 17 13 14 52 50 53
19 22 24 24 26 25 25 26 24 22 14 23 24 25 27 28 28 29 27 25 25 25 24 25 22 22 18 17 16 11 11 8 8 16 11 16 46 53
22 22 25 25 25 26 25 27 27 26 24 20 23 23 26 26 24 24 28 29 31 32 29 27 26 25 24 22 21 15 12 10 10 9 14 19 15 38
20 21 22 20 22 24 26 25 26 26 24 23 23 23 24 27 29 28 28 30 33 33 34 36 31 29 26 25 24 19 17 16 15 14 13 15 25 17
19 23 27 28 29 28 27 28 28 27 26 25 25 22 23 23 27 26 26 26 29 31 32 31 32 31 27 22 24 23 19 20 17 16 19 19 19 21
28 31 29 28 27 28 27 28 27 25 24 23 22 22 19 18 20 23 25 24 27 29 30 33 31 30 29 26 27 25 22 20 20 21 21 24 22 23
29 28 29 29 29 29 28 30 30 27 26 23 20 18 20 18 20 22 23 18 10 23 25 19 18 19 22 25 27 26 24 23 23 22 19 20 25 25
27 27 27 25 25 26 27 28 29 30 32 31 27 24 25 23 22 21 23 23 22 21 20 22 23 22 21 18 21 24 24 24 23 22 22 23 24 29
27 27 26 28 28 27 29 29 31 32 32 30 31 31 31 29 27 27 27 27 28 26 24 15 24 23 23 18 17 19 21 24 24 24 24 23 25 27
27 27 26 27 30 29 31 30 30 31 30 30 34 34 31 31 29 25 23 20 11 18 24 21 21 23 25 32 26 20 21 23 25 25 24 25 25 25
24 24 25 27 31 32 32 30 28 29 24 24 26 30 33 35 35 33 27 20 17 6 20 16 18 15 6 22 27 22 24 26 24 23 22 21 22 25
25 26 25 25 26 29 27 27 28 28 26 24 24 25 27 28 30 30 32 29 21 19 19 19 14 18 17 11 11 14 14 14 17 19 21 22 23 21
27 22 23 26 26 25 25 24 25 25 21 20 21 21 21 24 27 27 29 30 31 26 17 24 19 22 16 10 9 12 10 13 14 16 17 19 18 19
21 19 22 23 21 21 21 20 19 19 18 18 19 20 23 25 23 22 25 25 26 29 29 29 28 26 25 15 8 12 8 7 14 13 12 15 18 18
18 15 18 22 20 19 21 21 18 15 13 14 18 19 17 16 20 24 20 22 19 19 25 29 32 31 23 24 20 19 16 8 11 15 14 12 13 14
14 17 21 22 20 22 22 22 23 22 16 17 15 8 8 11 14 16 19 15 11 12 15 22 26 31 29 23 18 22 23 16 13 9 8 6 8 9
13 14 17 19 17 18 20 21 21 23 22 17 12 9 7 8 10 13 15 14 13 13 17 18 19 13 8 7 18 14 12 9 6 5 3 1 4 6
15 15 16 18 18 20 20 19 19 23 22 20 14 11 11 11 11 13 17 14 13 13 11 14 16 12 5 4 4 5 8 9 11 8 4 2 2 3
17 15 16 18 20 20 22 18 18 22 24 22 19 17 16 14 13 10 5 0 4 2 4 6 5 3 3 4 3 5 3 8 12 10 11 11 11 8
18 17 18 20 21 21 22 22 18 19 23 23 23 20 17 14 13 14 11 9 5 4 4 6 4 2 7 11 6 10 16 4 6 8 15 12 5 4
18 18 20 20 21 22 23 23 23 20 24 25 22 20 17 13 11 9 10 7 7 7 10 10 8 6 5 5 5 9 14 18 17 15 11 4 4 3
18 19 20 21 22 22 23 23 23 23 20 22 21 19 17 16 13 12 11 10 9 11 13 12 11 12 10 12 10 9 14 15 15 17 15 11 6 4

GFSNE_925_spd_018.txt.gz
Wind_Speed
7 9 12 14 13 15 17 20 12 8 10 15 17 14 16 18 19 20 21 21 20 22 24 25 23 19 17 15 14 15 21 15 20 20 20 35 43 53
10 10 10 12 15 16 18 21 22 18 10 17 19 23 22 22 21 22 25 27 30 29 27 23 21 20 19 15 17 15 13 20 15 16 17 17 42 55
12 14 16 16 18 19 20 22 23 23 13 22 22 23 26 25 25 26 26 25 23 20 21 22 22 21 19 19 16 15 16 15 12 15 16 16 14 45
17 18 19 21 21 20 20 22 23 22 21 18 21 19 24 26 26 26 25 25 29 33 34 34 33 32 27 23 22 18 18 18 14 13 13 14 18 17
19 19 19 18 21 23 26 25 24 23 23 22 25 24 24 26 27 29 33 31 33 34 34 33 31 30 29 29 25 23 21 23 20 19 19 17 13 19
17 21 24 26 27 26 25 25 23 22 21 22 23 24 21 22 24 23 24 26 28 29 30 30 30 30 29 28 28 27 25 26 23 21 21 23 19 15
27 28 29 28 25 26 25 24 22 20 21 20 19 21 19 17 17 22 24 26 25 26 28 30 29 31 30 29 28 27 25 27 25 23 22 22 22 22
26 25 27 26 26 25 24 24 26 24 24 21 21 21 23 21 20 21 22 18 9 21 27 28 26 27 24 20 22 25 25 26 28 25 24 22 22 22
26 27 26 23 22 24 25 26 26 27 28 29 27 26 24 23 23 21 23 23 23 25 22 21 18 20 21 20 18 17 23 24 26 25 24 23 23 23
26 26 25 26 23 23 25 26 28 29 30 31 32 33 33 30 28 27 27 27 27 26 24 17 22 25 28 27 24 20 13 18 23 23 23 24 24 23
24 22 23 23 23 24 28 29 29 29 29 29 32 36 35 34 30 26 23 20 13 20 23 22 20 21 26 29 26 27 23 15 18 20 22 24 23 23
21 21 22 24 24 24 26 25 25 21 20 22 28 31 32 33 37 34 24 20 17 6 20 16 17 14 5 11 14 19 26 23 19 22 20 20 21 21
21 22 23 20 21 25 23 25 26 26 26 25 23 25 26 26 29 29 32 29 20 18 22 19 13 16 12 10 15 11 7 10 10 12 14 16 17 19
24 23 21 18 23 23 21 21 23 23 22 20 19 19 20 23 26 27 29 31 32 29 21 24 19 19 12 8 6 10 15 15 10 10 9 12 14 15
19 19 17 19 20 20 20 20 18 17 16 14 15 19 22 24 23 24 28 28 26 28 30 28 22 21 20 13 9 9 5 4 8 11 12 9 14 16
18 15 17 19 18 18 22 23 21 19 15 13 13 16 12 15 16 18 16 19 17 17 22 23 25 25 18 20 19 15 15 9 7 9 14 16 15 16
12 15 19 23 22 21 21 21 23 24 21 19 15 13 10 6 8 10 15 15 13 12 13 19 21 24 25 20 12 18 18 16 20 19 16 16 15 14
11 13 15 18 18 19 20 20 20 23 23 20 16 14 12 9 6 6 7 10 11 13 13 15 17 16 12 12 21 17 18 17 18 15 13 11 13 10
14 15 15 16 18 18 18 19 18 23 23 20 17 17 17 15 13 8 10 11 11 12 14 17 15 12 6 6 5 14 14 13 13 11 11 11 7 6
16 15 16 17 18 18 21 21 23 22 25 23 21 18 15 14 12 12 11 5 2 1 0 2 3 3 2 4 4 4 5 11 13 11 6 6 5 2
16 17 19 19 20 21 23 25 24 20 24 23 22 20 16 12 11 13 10 8 4 4 4 4 3 3 9 13 7 5 18 6 6 9 10 7 3 1
18 18 19 21 22 23 24 24 24 25 22 24 22 19 17 15 13 11 12 9 9 6 8 8 7 6 4 4 6 6 7 11 11 9 7 3 2 2
17 18 18 20 22 23 23 24 24 24 23 23 22 20 17 16 13 12 12 12 10 9 7 8 10 12 9 11 9 7 9 8 9 11 12 7 2 2

GFSNE_925_spd_021.txt.gz
Wind_Speed
6 5 3 5 6 8 11 14 12 10 12 20 21 17 16 16 18 18 19 20 21 21 22 24 25 23 21 20 18 16 16 20 20 20 18 21 25 25
6 10 11 11 12 13 15 16 17 19 14 22 22 21 21 22 22 22 21 22 25 27 28 27 23 19 17 20 19 17 19 16 19 22 22 17 21 26
6 8 10 12 13 14 15 18 19 20 15 26 24 22 24 24 23 23 24 24 24 25 25 23 23 24 24 23 21 20 18 20 19 19 21 22 21 20
11 13 15 15 16 15 15 17 19 20 22 22 26 25 25 25 26 26 26 27 26 25 26 30 33 34 33 32 28 25 23 22 23 20 19 16 18 20
14 14 14 13 15 17 19 21 22 23 24 25 27 26 26 26 27 27 28 28 30 29 31 35 36 35 34 32 30 29 28 27 26 26 23 22 17 16
16 17 18 17 19 20 20 21 21 22 22 23 24 25 23 23 24 25 25 24 25 24 25 27 28 28 28 30 31 31 31 31 30 29 28 27 22 20
20 20 20 21 21 22 23 23 23 23 22 21 22 24 23 20 20 22 24 23 24 22 23 24 23 23 23 24 28 30 31 31 32 30 32 31 26 23
21 21 21 21 20 20 20 21 23 23 23 22 23 22 25 25 23 22 21 21 12 19 21 22 19 23 23 22 22 23 26 28 30 29 33 28 30 27
21 22 22 21 20 20 20 20 22 25 28 29 28 29 28 27 25 24 25 25 24 23 20 22 20 23 20 18 19 19 18 20 27 28 27 28 27 28
21 21 21 21 18 19 20 21 23 24 25 27 30 32 31 28 27 27 27 27 27 26 23 17 20 21 20 22 23 27 25 21 17 23 25 26 25 24
18 17 19 20 21 22 23 25 25 27 26 29 33 36 35 34 33 28 24 22 16 23 21 20 20 21 21 22 22 23 23 23 21 15 23 26 25 25
20 19 19 20 21 20 19 22 25 26 24 24 25 26 27 30 33 37 30 23 19 14 21 19 19 15 9 11 13 12 15 23 24 21 18 22 23 22
21 21 17 18 21 16 19 20 21 23 25 23 22 22 20 21 22 22 26 27 24 22 22 13 12 14 11 12 8 8 5 11 18 17 18 20 20 20
20 18 14 17 17 17 14 16 17 16 14 14 14 15 16 18 20 20 21 23 26 27 23 16 20 17 15 14 12 6 4 7 10 11 11 11 12 14
15 17 14 15 15 12 12 14 14 12 12 11 10 12 14 15 15 15 18 20 24 26 26 24 21 21 18 16 13 9 9 6 9 9 8 5 5 8
16 9 11 12 11 12 12 12 12 13 12 10 11 12 11 8 6 7 10 11 14 14 18 21 24 24 17 17 18 16 11 8 5 6 7 8 9 9
10 8 10 13 15 16 16 13 12 15 15 13 12 12 10 7 4 4 6 7 10 9 10 11 16 20 21 17 13 17 16 13 13 13 12 11 11 9
7 9 11 12 14 15 16 15 14 16 17 15 13 12 11 10 6 3 4 6 8 8 9 8 9 12 14 18 22 18 15 14 12 11 12 11 11 9
10 10 11 12 13 14 15 15 15 16 16 15 14 13 12 10 9 8 4 6 7 8 9 9 11 12 8 8 4 13 13 13 12 10 11 10 7 6
12 11 12 12 12 13 14 15 15 16 16 16 15 14 12 11 10 9 8 6 3 1 1 1 3 5 6 4 3 1 6 7 10 10 8 5 3 6
12 12 12 13 13 13 14 14 14 16 16 16 15 14 13 11 10 9 8 7 6 3 2 2 4 1 2 4 5 4 9 4 6 5 6 4 3 4
12 12 13 13 13 14 14 14 15 16 16 16 16 15 14 11 10 9 8 6 6 5 4 4 4 2 1 1 5 6 5 7 9 8 6 4 1 2
12 12 12 13 13 14 14 14 15 15 15 16 15 15 14 12 10 9 8 7 6 5 4 4 5 6 4 5 7 6 7 6 6 6 8 5 1 1

GFSNE_925_spd_024.txt.gz
Wind_Speed
0 0 2 3 4 6 8 10 9 7 10 17 16 15 15 16 17 17 19 20 19 23 23 22 23 24 24 23 22 22 21 22 22 21 20 24 24 22
5 7 9 10 11 11 12 15 16 18 13 21 21 21 20 21 21 22 23 23 25 26 27 28 29 29 27 25 24 23 23 22 23 22 22 23 26 23
12 13 14 15 17 17 17 19 20 20 16 25 24 24 23 23 24 24 25 24 24 24 25 28 30 27 26 26 27 27 27 25 24 24 24 23 23 24
15 16 18 18 19 19 19 20 21 22 23 22 26 27 27 26 27 27 26 26 27 26 25 26 29 30 30 31 33 34 33 31 29 26 27 26 22 22
17 18 18 18 19 19 20 21 22 23 23 25 27 27 27 27 28 27 27 27 28 29 29 31 31 36 39 39 38 38 37 35 33 31 28 28 27 23
18 18 19 19 20 20 21 22 23 24 23 24 26 27 25 25 26 25 26 26 27 26 27 28 28 28 29 27 27 28 31 34 35 35 33 29 31 28
20 20 20 20 20 21 23 23 23 25 24 21 22 25 24 23 23 24 25 25 25 23 23 23 24 25 25 26 26 31 34 36 36 36 35 34 32 32
20 20 20 21 22 20 20 22 24 24 22 21 22 21 24 24 23 23 23 21 12 23 26 27 23 23 24 24 24 25 26 22 23 29 35 36 35 32
21 21 23 22 20 21 20 19 21 25 25 26 27 28 28 26 25 24 24 24 25 24 24 23 20 22 20 22 25 26 24 25 25 23 28 33 33 33
21 23 22 22 20 19 20 21 21 22 23 25 28 30 30 28 28 27 27 26 25 25 24 20 22 23 23 22 24 25 26 29 29 25 22 27 30 30
22 20 20 21 21 19 21 22 23 24 24 26 29 32 34 35 33 28 24 21 17 24 24 25 23 23 23 23 24 25 27 29 29 27 24 21 25 26
20 20 20 21 20 19 21 23 18 25 23 22 24 24 25 28 31 30 30 25 22 17 20 21 21 17 13 20 22 21 19 22 27 27 26 21 21 24
22 22 19 15 11 18 18 19 20 20 24 23 22 20 18 20 23 24 27 28 25 24 24 15 13 17 18 15 9 7 9 10 14 20 27 25 20 21
23 20 16 19 18 18 16 14 16 18 16 15 16 15 14 15 16 18 20 22 22 24 21 14 17 18 16 15 11 13 12 9 7 13 14 17 19 19
18 19 16 16 15 13 10 12 12 10 12 13 13 14 12 12 13 14 14 16 18 19 20 18 17 18 14 17 12 12 11 9 8 11 13 11 10 13
18 14 12 12 11 10 9 8 8 9 11 12 12 14 14 11 10 9 9 10 13 13 15 18 19 18 19 18 18 17 12 7 10 10 10 8 8 7
15 10 10 11 11 11 11 10 9 11 12 12 12 12 13 10 8 6 7 9 9 9 10 11 15 18 20 18 16 15 14 15 14 8 9 8 9 9
8 10 11 12 12 13 14 15 12 12 13 13 12 12 13 14 12 8 6 6 8 9 9 7 9 12 14 18 21 18 12 12 12 11 11 10 13 13
10 11 11 12 13 14 14 14 14 13 12 12 12 12 12 12 13 11 10 6 7 8 10 6 7 10 7 8 5 19 14 12 9 11 10 11 11 7
11 11 12 13 14 14 15 15 15 14 14 14 13 13 13 12 11 12 12 11 11 7 4 3 5 6 6 4 2 5 5 7 12 11 12 10 8 8
11 12 12 13 14 14 15 15 15 15 15 15 14 14 14 13 11 11 12 10 9 8 6 5 6 6 6 4 3 5 5 1 5 3 7 8 8 9
11 12 12 12 13 14 14 14 15 15 16 15 15 15 14 12 12 12 12 11 9 7 6 5 5 5 4 6 5 4 4 5 4 4 5 2 2 1
11 11 11 11 12 13 13 14 14 15 15 15 15 15 14 13 12 11 11 10 9 9 7 6 5 4 4 3 3 3 4 3 2 6 10 5 2 1

GFSNE_925_spd_027.txt.gz
Wind_Speed
8 7 6 6 6 5 6 6 6 4 8 13 13 13 16 19 18 17 17 18 20 21 22 22 23 23 24 25 27 26 22 20 20 21 22 22 21 20
13 13 13 14 12 12 12 12 13 13 9 19 18 18 18 20 20 16 17 20 22 22 23 25 29 29 28 29 29 29 29 26 24 22 23 23 20 21
14 16 18 19 19 19 18 19 19 20 13 20 22 21 21 22 23 22 22 23 24 27 29 30 30 29 30 30 30 29 30 30 29 27 24 25 25 23
19 20 22 22 21 20 21 21 22 23 22 19 22 22 23 23 24 24 24 27 26 26 24 23 27 28 28 29 28 29 30 32 33 33 30 28 28 26
24 23 22 22 22 21 21 22 22 23 23 23 23 23 24 24 24 24 25 26 27 27 28 29 29 30 30 35 35 35 36 38 38 37 35 34 31 29
23 23 23 23 23 23 23 22 22 23 23 24 24 24 24 24 23 22 22 23 24 25 25 25 25 25 26 27 31 33 33 34 35 36 36 36 35 33
25 25 24 22 22 25 25 23 22 23 23 23 22 21 21 20 22 22 22 21 22 21 22 21 21 20 21 25 33 31 32 34 36 35 35 36 36 37
25 25 25 24 24 20 18 19 21 23 23 21 22 22 23 22 22 22 21 19 10 20 24 24 24 23 24 24 25 19 14 18 26 24 28 32 34 36
25 25 25 25 24 22 19 19 20 21 24 26 26 27 26 26 26 25 24 22 22 21 21 22 20 24 22 22 23 28 26 26 24 22 25 29 30 31
24 25 25 25 24 22 21 22 22 22 23 25 28 30 28 27 25 27 26 26 26 24 23 19 21 24 23 23 24 26 28 30 31 31 32 30 29 29
24 22 22 24 24 22 18 19 22 24 23 23 25 28 32 34 34 29 26 23 16 20 22 24 23 23 23 25 24 26 29 30 31 33 32 33 32 26
22 22 23 25 26 24 16 15 21 23 20 20 22 25 26 27 28 31 28 24 22 20 23 19 21 20 12 21 25 26 26 29 32 32 32 31 29 28
23 23 22 19 16 16 17 18 20 20 20 21 23 23 23 22 21 21 26 27 25 25 25 21 14 17 18 16 15 13 12 15 18 18 21 26 29 28
24 25 20 23 20 21 19 17 17 18 18 19 17 18 18 13 12 15 19 23 26 27 22 16 10 17 15 14 12 15 16 18 15 15 15 18 23 28
24 20 23 17 18 16 13 15 14 14 12 13 13 14 15 15 16 13 14 15 16 19 19 19 18 15 16 12 13 12 10 13 14 12 12 16 15 17
21 21 16 13 14 15 11 10 9 9 10 12 12 13 14 14 12 9 12 10 11 13 16 19 20 18 17 18 17 15 16 11 6 10 13 14 16 17
21 14 12 13 14 13 12 10 10 9 10 11 12 12 12 14 13 8 7 9 11 10 11 12 17 18 17 16 15 16 16 17 15 10 10 12 12 10
15 11 12 13 14 15 15 15 13 14 13 13 12 12 12 13 14 16 11 7 9 10 10 8 12 10 12 16 23 19 15 12 13 11 13 9 8 10
11 12 12 13 14 15 15 16 16 16 15 14 13 12 12 12 12 13 13 14 13 8 10 10 6 8 6 8 5 21 16 13 11 11 10 9 9 8
11 12 13 13 14 15 16 16 17 16 14 14 13 12 12 12 11 10 11 11 11 13 11 7 9 11 6 5 4 3 6 8 8 11 11 11 9 8
12 12 12 13 14 14 15 16 17 16 16 16 15 14 13 12 12 11 11 12 11 10 10 9 9 9 9 9 4 5 4 3 5 5 7 9 7 9
12 12 13 13 13 14 15 16 17 16 16 16 17 16 15 13 13 12 12 12 11 11 9 8 7 7 6 6 3 3 3 3 6 3 3 3 3 3
11 11 11 12 13 13 14 15 16 17 17 18 18 18 17 16 15 13 12 12 12 13 12 10 9 6 5 4 4 4 2 3 3 9 11 7 4 4

GFSNE_925_spd_030.txt.gz
Wind_Speed
11 13 14 13 12 14 12 11 5 3 4 11 9 15 17 15 15 11 12 13 18 19 19 19 19 21 24 23 23 21 17 16 16 16 16 16 17 18
14 14 16 16 16 17 16 15 14 12 5 9 16 18 19 16 16 17 20 17 17 13 14 18 21 24 27 28 30 30 28 23 19 17 18 19 18 17
16 17 17 19 22 20 17 17 18 20 13 21 23 24 23 22 19 20 20 22 21 21 23 27 28 30 29 29 29 29 30 30 25 21 19 22 22 20
17 19 21 20 21 20 19 20 20 21 20 16 18 19 22 21 21 20 22 20 21 20 21 26 26 29 30 30 28 27 28 28 29 29 28 26 26 26
21 25 25 24 23 21 22 22 21 21 22 21 20 21 23 24 26 24 22 22 22 22 25 26 27 27 27 28 30 32 33 32 31 33 35 35 33 32
21 24 27 27 25 23 16 20 22 24 22 21 21 20 20 21 25 22 15 17 20 20 21 19 13 18 28 31 31 31 30 29 33 35 36 37 37 34
23 24 26 27 28 26 25 22 20 20 19 18 18 19 18 18 16 16 18 18 21 20 20 23 23 22 17 16 18 21 25 32 33 33 32 33 34 32
24 26 26 25 25 21 17 16 17 17 18 18 20 19 21 21 20 18 18 17 6 20 20 22 21 25 25 23 23 20 18 21 20 18 25 28 28 29
23 25 25 23 25 22 20 19 18 17 19 24 23 24 22 24 24 23 22 20 20 22 21 21 22 24 25 26 27 26 28 30 30 30 26 23 24 25
22 26 25 27 25 25 26 24 25 22 22 22 25 31 27 27 25 22 21 20 22 23 21 18 24 26 25 27 28 29 31 32 33 32 31 30 29 29
23 24 23 25 27 26 27 23 24 23 19 20 24 26 26 26 27 26 24 20 19 23 25 20 23 24 26 28 30 32 32 33 33 33 32 31 31 31
22 23 24 24 22 11 15 16 18 20 20 22 23 23 27 28 29 27 27 22 19 16 22 22 22 18 9 21 25 30 29 29 31 32 33 32 31 31
22 23 25 24 21 22 18 20 21 20 21 20 22 24 23 24 26 26 26 28 22 20 24 18 17 18 17 16 18 18 17 19 15 19 23 25 25 28
23 25 24 28 23 20 19 17 17 17 20 20 20 19 18 18 17 14 14 18 23 29 26 17 10 16 15 12 12 16 16 16 17 20 18 19 21 21
24 25 25 23 17 17 18 17 15 17 18 13 13 14 15 18 18 19 14 13 16 19 18 22 22 17 17 14 10 13 12 12 14 14 18 19 17 18
25 24 23 15 16 18 18 17 15 11 12 12 13 15 15 15 16 18 11 13 11 12 14 15 20 21 18 20 18 19 19 11 12 16 13 17 17 18
24 21 15 17 17 19 19 20 19 18 16 16 16 16 15 16 16 17 18 14 12 13 12 10 14 20 22 20 17 18 16 15 15 14 17 15 14 14
18 14 14 15 15 17 17 18 17 17 18 17 17 15 15 15 17 17 16 16 14 14 15 13 13 14 11 13 22 21 18 16 13 11 14 16 15 10
12 14 13 15 16 17 17 17 18 20 19 20 18 17 16 16 17 13 16 16 16 16 16 11 13 11 2 3 3 5 12 13 14 12 10 17 11 10
14 14 14 15 16 16 18 19 21 19 19 21 21 19 18 18 14 14 14 14 14 14 12 11 12 10 3 3 4 3 6 7 10 10 14 12 9 7
14 14 14 15 15 16 18 19 20 19 19 20 21 22 22 17 16 14 15 16 14 12 10 13 11 10 10 11 3 2 6 8 6 5 9 8 10 8
14 15 14 14 15 16 17 18 18 19 19 19 20 22 24 19 19 16 16 16 14 15 14 15 12 8 8 7 2 4 2 4 7 8 6 6 4 2
12 13 14 14 14 15 16 17 17 17 17 19 19 22 23 20 21 18 16 17 15 16 18 18 11 10 5 6 4 3 2 4 4 9 11 9 7 6

GFSNE_925_spd_033.txt.gz
Wind_Speed
11 13 14 18 18 13 14 14 8 5 6 9 10 17 21 16 15 11 6 6 12 12 14 15 12 11 13 15 15 15 14 14 13 15 14 12 12 12
16 16 17 17 18 21 20 20 17 16 8 13 24 27 25 22 18 14 14 15 17 19 15 17 15 13 13 17 22 20 20 20 17 17 17 16 14 13
10 9 13 16 19 21 19 18 17 17 12 19 22 21 22 18 16 16 18 11 20 17 17 18 19 21 21 22 21 20 20 20 19 19 17 18 17 17
10 14 20 23 23 24 24 21 21 17 16 13 14 17 20 23 24 23 20 17 17 19 19 17 20 24 23 26 25 23 22 23 23 22 20 20 20 21
18 20 21 24 26 27 28 29 21 18 20 20 17 21 22 22 24 23 22 21 22 21 17 18 21 23 23 23 24 24 27 29 28 27 25 23 25 26
20 22 24 23 23 25 26 25 24 23 22 21 18 15 15 19 21 18 19 18 17 12 10 8 6 7 9 12 16 24 27 27 27 27 26 26 26 27
24 25 22 21 21 21 17 17 17 18 19 17 16 15 16 19 18 23 23 21 23 24 24 25 25 23 20 18 15 14 16 19 23 24 27 27 27 26
24 23 23 21 19 22 18 18 17 18 17 14 14 14 19 19 21 20 21 19 6 17 15 19 17 20 19 17 17 19 21 21 23 24 23 23 21 22
22 22 27 22 24 23 23 24 22 18 19 21 20 21 19 25 22 21 20 20 18 24 21 21 22 24 24 24 24 23 22 24 25 27 27 28 28 29
21 22 25 27 25 26 25 25 26 25 22 20 21 25 23 25 26 23 23 21 18 23 25 18 28 29 31 29 27 26 26 27 28 29 31 33 32 29
19 21 24 26 25 23 20 16 17 18 17 15 18 19 20 21 20 20 18 16 18 21 24 22 24 25 28 26 27 26 27 28 29 31 31 32 33 31
20 22 21 22 23 21 25 19 17 21 23 21 22 24 23 23 21 21 24 20 19 13 20 14 19 19 9 18 24 22 22 23 24 26 27 29 30 31
19 21 23 23 26 24 20 18 21 20 20 19 20 22 18 16 16 16 22 26 21 20 22 13 9 19 18 14 17 22 23 22 20 20 21 20 21 25
21 23 26 26 24 16 16 19 18 15 18 18 16 17 18 16 14 15 17 15 17 21 21 19 12 18 15 11 10 19 17 17 17 19 18 19 19 20
22 23 22 17 18 16 17 17 18 16 12 11 8 11 14 14 12 12 13 6 10 13 16 16 20 19 17 13 9 11 13 11 9 13 15 16 20 19
23 22 15 18 17 18 20 19 18 19 16 15 15 15 14 15 14 13 14 16 10 9 7 8 14 16 17 18 16 17 20 13 13 14 16 17 17 19
16 15 16 19 17 18 18 20 20 20 19 18 17 15 15 16 15 14 14 13 11 12 13 10 7 12 21 21 14 18 21 21 19 17 15 14 16 18
15 15 15 17 15 16 17 18 20 20 19 18 17 16 15 16 16 14 14 15 14 16 14 13 6 6 4 8 12 19 16 17 17 13 13 10 15 18
15 15 15 16 15 15 16 17 18 20 19 18 18 18 19 19 15 15 15 15 15 14 11 10 13 8 1 1 3 3 6 9 13 14 12 10 12 21
15 14 15 16 15 15 17 17 19 19 19 20 19 21 22 18 17 16 16 16 13 12 11 12 11 9 0 3 3 3 6 7 6 7 8 8 9 9
15 14 15 15 16 16 18 19 19 19 18 19 20 21 23 19 19 17 18 16 14 13 11 16 13 9 8 7 1 2 3 7 7 6 6 6 6 7
12 13 13 14 15 15 17 18 18 20 19 19 19 21 22 21 20 19 18 17 16 17 15 15 10 9 7 4 1 1 1 2 6 8 6 5 3 1
11 13 11 12 14 14 14 16 16 18 18 18 18 20 20 22 20 20 17 19 16 18 19 16 16 12 6 6 1 1 1 4 3 5 8 7 4 4

GFSNE_925_spd_036.txt.gz
Wind_Speed
17 15 14 14 14 16 17 16 11 7 8 10 12 20 22 22 20 20 17 17 12 8 8 21 14 12 15 14 10 8 10 11 11 10 8 7 7 7
17 15 10 9 10 11 16 18 17 17 9 16 21 22 16 18 18 16 16 15 16 12 14 11 18 16 16 13 12 10 11 12 11 10 10 9 9 9
5 8 11 12 19 21 23 22 20 20 10 13 12 10 10 13 16 18 16 15 15 17 18 12 15 16 17 19 18 13 11 12 12 11 9 9 10 10
12 15 18 20 22 24 23 23 22 22 22 13 13 13 18 20 20 19 17 15 15 15 15 16 14 13 18 22 23 16 15 14 15 16 14 10 9 10
14 17 20 22 24 23 23 24 23 23 21 20 15 13 10 11 18 19 15 9 8 6 4 8 10 13 18 16 17 18 17 18 20 20 20 16 14 13
18 18 19 18 20 21 22 18 16 18 17 19 19 17 12 13 18 19 20 20 21 17 16 14 11 9 8 4 9 18 19 20 21 19 19 19 18 16
16 17 16 16 18 18 17 17 14 17 17 14 11 10 14 17 15 18 19 19 19 20 22 22 19 16 13 12 12 12 10 10 14 18 20 20 20 20
19 18 19 18 16 20 18 18 19 18 18 16 15 14 17 19 18 19 17 16 3 8 12 14 17 21 19 17 14 12 13 15 16 18 20 22 22 21
19 20 21 17 24 23 24 22 22 21 20 21 18 18 19 23 20 19 19 17 14 20 17 16 13 18 19 19 18 18 19 19 18 19 19 20 23 24
17 17 20 25 23 21 23 23 22 17 15 16 20 23 22 23 21 20 22 22 20 19 18 11 22 25 27 26 25 22 22 22 21 22 22 24 26 26
20 22 23 22 21 21 22 22 22 22 23 20 19 20 18 17 17 16 16 14 10 17 19 14 22 20 24 24 23 21 21 21 22 23 24 25 26 26
18 20 20 20 21 23 24 24 20 20 21 21 19 17 17 20 20 20 23 18 14 9 14 12 16 9 5 11 17 20 24 21 19 20 22 23 24 25
19 20 22 22 23 16 17 17 20 20 22 22 21 19 16 15 15 15 18 22 19 18 20 10 10 10 9 8 15 13 13 15 18 17 16 17 18 20
22 22 24 18 19 16 15 16 15 14 12 14 15 15 14 12 10 10 10 13 16 19 19 17 11 13 12 6 7 9 9 10 12 15 15 15 17 19
19 18 14 16 15 15 16 15 14 16 15 13 11 11 11 10 8 7 7 5 5 9 13 15 18 16 15 11 5 9 10 6 8 9 11 13 17 17
14 14 15 15 15 16 17 17 18 18 15 14 13 12 10 11 9 10 9 9 6 8 3 6 11 16 14 14 13 13 12 7 7 12 12 14 16 19
15 13 16 17 16 16 19 19 19 19 18 18 16 14 13 12 11 10 8 9 6 6 10 7 4 8 15 16 13 18 19 17 18 15 16 16 18 16
13 14 15 17 15 15 17 17 18 20 20 18 17 16 15 14 12 13 11 12 10 10 5 9 7 2 3 4 10 12 12 14 16 14 14 15 15 13
13 13 14 15 15 15 16 16 16 18 17 17 17 18 18 17 15 15 14 14 12 11 10 7 9 6 2 1 2 1 6 9 9 10 13 14 14 16
13 11 13 13 14 14 16 16 16 18 17 16 18 18 18 18 16 16 16 14 14 12 11 11 10 9 1 3 3 3 5 7 7 6 8 9 10 10
11 12 10 11 13 13 14 15 16 17 16 14 17 18 18 18 17 16 16 14 13 14 12 15 13 8 7 6 2 3 3 3 5 6 7 6 4 4
9 10 9 9 12 12 12 14 15 18 18 16 16 17 17 17 17 16 15 16 15 14 13 11 10 6 2 3 3 1 2 3 2 5 5 4 4 3
8 9 10 9 11 11 11 14 14 15 15 15 15 16 16 17 16 14 13 15 15 15 16 13 11 9 6 5 2 1 2 3 2 4 5 5 3 3

GFSNE_925_spd_039.txt.gz
Wind_Speed
15 17 17 19 13 10 9 13 9 6 8 17 18 15 16 15 16 15 15 14 15 18 16 15 12 9 7 16 10 7 10 11 10 9 8 7 5 6
12 10 7 5 7 13 16 17 21 16 7 16 21 20 15 14 15 16 15 14 16 15 17 18 17 16 14 12 9 10 9 10 10 10 10 9 7 6
4 6 9 12 14 19 21 21 22 20 12 19 21 20 16 13 16 18 18 16 14 15 18 15 17 12 18 15 13 9 6 11 11 10 9 9 9 7
10 14 17 19 21 22 22 22 22 22 21 17 19 20 17 16 13 15 16 13 12 9 12 16 17 16 12 13 15 17 17 15 12 15 10 9 6 8
15 17 16 18 20 20 21 22 22 19 16 18 16 17 16 14 13 15 16 15 16 17 11 7 5 8 20 16 13 13 13 17 21 18 13 13 10 9
15 14 16 16 17 19 21 19 16 19 15 15 15 13 13 13 13 16 19 17 19 18 19 17 13 8 6 6 16 19 17 18 17 20 19 17 15 13
16 16 18 17 18 17 17 21 23 18 16 15 15 13 13 15 17 14 15 17 18 19 19 21 16 13 7 6 8 8 9 17 23 23 19 17 17 15
19 19 21 20 17 17 22 21 21 22 19 17 17 16 16 19 19 18 15 13 3 11 9 10 8 15 15 14 14 12 12 12 13 13 14 15 15 15
18 19 19 15 21 23 22 21 22 22 22 24 21 19 19 20 21 19 17 15 13 21 17 16 15 14 14 15 15 16 18 18 18 19 19 17 17 18
20 20 20 22 22 21 22 23 22 23 24 21 21 22 22 22 22 22 21 15 16 23 17 9 17 21 22 21 20 22 22 21 22 22 22 21 21 21
17 20 19 20 19 19 23 26 26 25 22 20 20 21 22 21 20 15 14 11 11 15 15 15 18 15 17 16 15 20 22 24 21 21 24 23 23 22
19 20 18 17 20 19 19 22 20 21 21 21 22 21 18 18 18 22 23 17 13 8 16 15 15 9 5 7 3 7 14 18 18 17 19 21 21 23
19 19 21 18 17 19 17 18 18 17 16 14 17 18 16 14 14 16 20 23 18 21 14 11 6 7 6 5 11 10 8 8 17 14 11 13 15 18
19 18 18 18 17 16 16 17 16 13 15 15 14 13 11 11 10 8 11 15 18 24 18 14 10 12 10 4 5 4 7 4 5 10 13 13 16 18
15 15 15 15 15 15 16 16 16 17 17 16 14 13 12 11 11 9 4 5 12 13 14 16 17 18 14 10 5 8 8 5 7 6 7 9 12 14
16 13 13 13 13 15 17 17 17 18 17 16 16 15 12 12 11 8 5 7 3 2 2 4 10 14 13 12 12 12 9 4 6 8 10 12 10 11
14 12 15 17 17 16 17 17 18 18 20 19 18 17 15 13 12 9 6 7 5 5 6 5 3 3 10 13 9 14 14 15 16 16 14 15 16 16
11 12 14 15 16 14 16 16 17 18 19 17 17 17 16 15 14 13 10 7 7 9 4 9 8 1 1 2 7 6 5 6 8 9 10 12 12 15
11 9 10 12 14 13 15 14 16 18 15 15 16 17 17 16 15 14 14 12 12 10 10 6 8 8 2 1 1 2 1 3 7 6 6 10 12 11
9 9 8 9 12 11 13 14 16 17 16 14 16 17 17 15 15 14 14 13 13 11 11 8 8 4 1 2 3 3 5 5 6 7 7 8 11 12
8 8 8 8 10 10 10 12 12 14 14 13 15 16 16 16 16 14 14 12 12 13 12 13 11 6 5 3 2 3 4 2 3 4 7 7 6 4
7 8 8 8 9 10 9 12 12 14 14 13 14 14 15 14 14 14 13 14 14 12 13 11 9 5 1 1 3 1 1 3 2 4 5 3 4 2
8 7 8 8 8 9 8 11 12 12 11 11 12 13 14 14 13 12 11 13 14 14 14 13 10 6 5 6 3 1 1 4 3 4 4 4 4 5

GFSNE_925_spd_042.txt.gz
Wind_Speed
14 16 17 17 14 11 7 5 6 4 7 12 18 19 22 21 20 20 16 16 16 16 17 18 20 17 8 9 3 11 9 19 15 15 13 13 15 18
12 9 7 8 10 11 15 19 18 14 9 18 22 25 25 23 21 19 16 15 14 15 15 17 19 19 15 6 11 15 7 9 9 10 10 11 11 13
8 9 11 14 17 19 22 22 23 20 14 26 22 26 26 23 23 18 18 19 17 17 14 15 17 18 17 14 11 12 17 11 12 11 8 9 10 11
10 14 18 19 21 20 20 20 21 21 20 21 23 21 23 20 19 20 18 18 16 15 14 9 10 15 16 13 11 13 12 12 17 13 13 7 9 11
14 18 19 19 22 21 20 20 21 19 19 19 22 18 19 19 20 20 19 19 17 15 17 19 14 7 14 16 12 8 10 11 15 10 10 13 12 11
17 18 19 20 22 22 22 21 17 19 19 21 20 19 17 19 18 19 20 21 20 17 17 19 21 17 10 11 14 20 12 11 11 14 18 18 19 17
20 20 21 21 22 22 21 18 21 20 19 19 18 17 17 15 16 16 16 20 21 20 19 17 16 18 15 12 11 11 20 21 21 18 19 21 20 20
20 23 24 23 20 18 21 23 23 23 20 19 18 17 18 17 20 20 17 11 5 9 11 7 4 8 13 14 13 11 12 13 15 21 24 21 25 26
21 24 23 18 21 22 22 21 23 23 23 24 21 17 18 18 19 20 20 15 13 18 16 16 12 15 13 13 13 16 18 18 16 16 16 18 22 22
21 20 20 21 22 19 22 25 27 26 24 23 23 25 25 24 23 22 22 24 23 16 10 11 14 20 17 18 18 19 21 22 22 22 21 21 20 20
19 20 18 19 18 20 22 22 22 23 19 19 22 22 22 22 22 21 20 18 9 11 13 13 13 15 17 19 12 14 18 23 26 26 26 24 23 23
21 20 18 16 19 20 20 21 19 18 23 23 21 19 18 18 19 21 23 17 12 8 13 15 15 9 4 5 3 3 5 14 22 26 25 23 24 23
21 19 19 18 20 19 18 19 20 20 18 17 17 16 14 13 14 14 21 25 18 19 12 8 5 7 6 4 4 4 3 4 14 18 20 19 20 24
19 19 20 19 18 17 16 18 17 16 17 17 16 15 16 16 16 15 12 16 22 25 19 15 8 12 8 3 3 2 5 4 4 10 14 14 16 16
15 16 15 15 14 14 15 15 16 18 18 16 15 16 16 16 16 14 11 5 12 17 19 21 18 15 13 8 3 4 3 2 5 6 8 11 12 14
17 14 13 13 13 13 16 16 16 17 16 16 17 18 16 15 13 12 8 11 6 3 2 7 13 17 13 13 8 7 6 3 2 4 5 8 10 12
16 12 13 16 18 17 18 17 17 19 19 18 18 18 15 15 15 14 11 9 7 5 7 6 1 4 8 10 6 10 10 9 8 10 11 13 12 14
13 12 12 13 15 15 16 16 17 20 18 16 16 16 15 15 15 15 14 12 10 11 8 9 10 1 2 1 3 3 3 4 5 6 7 8 10 10
10 11 11 11 13 13 13 15 15 18 15 14 15 16 17 15 15 14 15 13 12 10 10 9 8 6 2 1 2 2 1 2 5 4 3 5 8 9
9 10 12 11 12 12 11 13 14 16 15 14 15 15 15 14 14 13 14 14 12 10 10 8 7 4 2 1 3 2 2 1 1 2 4 7 7 8
9 10 10 11 10 11 10 11 11 13 12 12 13 13 14 13 13 12 12 13 13 10 10 12 10 6 7 4 2 3 5 1 1 2 5 5 5 4
10 11 9 10 10 10 10 10 12 12 12 11 11 12 13 12 12 13 12 14 14 12 12 11 9 4 2 3 2 1 1 1 2 1 3 3 3 3
11 11 10 10 10 10 10 9 11 12 11 11 11 12 12 14 12 11 11 12 13 13 14 13 10 6 5 4 2 2 2 3 2 2 1 2 2 3

GFSNE_925_spd_045.txt.gz
Wind_Speed
13 14 12 10 8 8 8 8 12 12 15 23 24 23 23 22 23 23 25 24 21 20 20 19 20 20 20 19 18 12 6 18 21 31 24 21 19 20
11 8 8 8 9 11 12 13 15 20 16 26 28 27 26 25 23 24 25 24 21 21 23 23 20 20 20 19 18 17 14 7 18 18 21 19 18 16
7 8 10 12 15 16 17 17 17 18 20 28 27 26 25 25 24 22 21 21 21 21 20 19 17 17 19 19 17 17 14 5 4 14 11 14 12 12
7 11 15 16 17 16 16 17 18 19 23 24 27 27 23 22 23 22 21 22 22 20 20 21 21 17 13 18 16 14 13 17 13 10 13 12 11 9
11 14 17 17 18 18 18 20 21 21 23 24 28 25 25 22 22 21 21 22 21 20 21 20 20 21 19 12 17 15 15 12 14 19 13 14 13 14
13 15 17 17 19 20 22 22 22 21 22 24 27 26 23 21 20 21 21 20 21 19 17 18 20 22 23 19 13 18 13 8 13 13 17 22 17 15
15 16 17 18 20 20 21 22 22 23 24 24 24 23 22 20 19 18 20 19 20 19 20 20 17 16 16 18 15 14 17 18 12 12 17 16 17 20
16 18 19 18 16 17 19 20 20 22 22 22 23 22 23 22 20 19 18 17 11 15 15 14 8 11 11 12 15 13 11 13 20 18 15 14 17 17
15 17 18 16 17 17 17 17 18 20 22 24 24 24 25 23 22 19 18 17 19 18 15 17 15 15 13 13 17 18 16 13 12 13 19 23 25 25
15 16 17 18 17 17 19 18 18 21 21 20 21 23 25 23 22 22 22 21 20 19 15 11 14 16 12 12 13 16 19 21 19 16 14 15 19 22
15 16 17 17 16 18 21 21 20 20 16 18 22 22 24 24 24 21 18 17 16 18 14 13 13 13 12 14 13 16 20 22 24 24 23 20 17 17
16 17 15 16 19 20 19 18 19 19 21 21 19 18 18 15 15 18 20 16 16 12 11 11 13 9 5 4 3 3 7 13 20 24 26 26 23 18
17 18 17 18 20 19 17 16 18 18 17 17 17 16 14 13 12 11 13 17 18 19 12 10 9 7 7 2 3 2 2 6 8 14 23 25 25 23
16 16 17 18 18 16 14 16 16 14 14 15 14 14 14 14 15 15 15 14 17 20 13 15 9 11 10 4 4 5 3 1 5 8 12 15 21 20
13 16 15 15 15 12 13 14 13 13 14 14 14 14 15 15 15 13 11 10 10 14 16 19 17 13 11 7 4 6 5 3 3 3 7 11 12 13
13 13 12 12 12 11 12 12 12 12 12 12 14 15 14 13 12 12 10 11 7 4 2 9 15 17 12 10 8 4 5 3 5 4 4 7 10 12
13 10 9 10 11 12 11 11 12 13 13 13 14 15 14 14 13 13 11 10 7 7 6 6 1 5 5 5 5 5 5 4 2 1 3 6 8 10
9 9 9 9 10 11 12 13 11 13 13 12 12 13 14 13 13 12 11 10 9 9 8 8 7 1 4 3 2 1 2 3 2 1 3 4 6 7
9 9 8 8 9 9 10 10 12 12 12 10 11 12 13 12 12 11 11 11 9 8 7 7 6 4 2 1 2 2 1 2 1 1 1 3 4 4
9 9 8 8 8 8 8 9 11 11 11 10 10 11 12 11 11 11 10 11 11 9 8 6 4 4 3 2 2 2 2 1 1 1 1 3 4 4
11 10 9 8 8 7 7 7 9 10 10 10 9 10 10 10 10 10 10 10 10 9 8 6 6 7 5 3 2 2 2 1 2 2 3 2 2 1
12 12 10 8 8 7 7 7 7 8 9 8 8 9 9 8 9 9 9 10 10 9 9 8 7 4 3 4 1 2 4 0 2 1 2 2 3 2
13 12 11 10 9 8 7 7 7 7 8 7 7 8 8 9 9 8 8 8 9 8 9 8 7 4 3 3 2 3 3 3 2 2 2 1 1 1

GFSNE_925_spd_048.txt.gz
Wind_Speed
15 13 13 15 15 17 18 20 20 14 14 25 27 26 27 27 26 27 30 31 30 28 27 23 21 20 19 21 22 22 21 22 24 24 28 33 32 31
12 12 13 15 16 18 21 22 23 25 16 28 29 29 28 28 28 27 30 30 31 29 27 24 23 21 20 20 21 21 22 21 22 12 26 28 28 27
11 11 13 16 19 21 22 22 23 24 21 29 29 29 29 29 29 25 26 28 28 26 25 21 20 23 21 18 20 20 20 20 20 13 4 18 29 31
10 11 15 18 20 21 21 21 23 25 27 27 30 28 28 28 28 27 26 27 27 26 16 17 20 25 23 21 19 19 17 19 16 18 6 12 5 16
10 13 18 20 21 21 22 24 24 26 27 27 29 28 28 28 27 25 24 25 26 25 27 28 21 18 19 20 20 18 18 18 17 18 15 4 2 10
12 16 18 19 20 21 23 24 25 25 24 24 26 27 26 25 24 24 23 21 22 22 20 21 20 22 23 23 21 21 18 18 13 13 20 23 10 5
15 16 16 17 18 17 18 21 23 23 23 23 24 23 23 22 20 22 22 22 22 21 22 22 22 21 18 17 16 18 17 17 17 10 14 16 17 22
14 16 16 16 14 18 16 16 20 19 20 21 23 22 24 24 23 22 21 20 11 17 17 17 17 16 16 14 10 11 12 13 16 16 10 16 14 23
13 15 16 15 17 18 18 19 21 22 22 23 27 26 26 24 23 23 22 23 22 18 17 18 16 17 17 17 16 18 17 13 11 16 17 14 12 17
13 15 15 17 17 16 20 22 22 21 20 21 22 23 25 25 25 27 25 25 23 22 19 18 17 17 17 16 16 17 18 19 15 14 13 16 19 20
14 14 15 16 15 19 20 22 22 20 19 18 21 23 24 24 26 23 21 20 19 20 17 17 14 14 15 15 15 15 16 19 21 19 16 14 13 14
15 14 14 12 16 18 19 19 20 19 21 22 21 20 18 18 17 15 16 17 18 16 16 8 12 12 11 16 15 13 13 17 20 22 22 20 18 13
15 15 15 16 17 18 17 16 16 22 20 18 19 18 15 14 15 15 16 15 17 17 15 12 11 12 10 6 5 7 8 8 8 11 20 24 25 22
14 14 16 18 17 17 14 15 16 16 15 16 16 16 16 16 16 17 18 18 18 19 14 11 14 14 11 10 7 7 6 4 5 7 9 14 21 25
13 15 18 16 15 13 11 13 13 13 14 14 14 15 16 16 17 15 15 14 16 13 13 15 14 13 12 11 6 6 6 6 5 5 6 11 15 19
11 14 15 14 12 12 11 10 10 11 12 13 14 15 15 15 15 14 15 15 15 4 5 10 14 14 14 13 11 8 7 6 7 6 6 6 4 10
13 12 12 11 11 10 10 9 10 11 12 12 13 14 15 15 15 14 13 14 12 12 7 5 1 8 12 12 9 8 6 7 6 7 4 6 8 8
11 13 12 11 11 10 10 10 10 10 11 11 12 13 14 14 15 14 12 12 11 11 10 10 9 4 6 2 4 5 2 4 5 3 1 2 3 5
12 13 12 11 11 10 9 9 10 10 10 10 11 12 13 13 13 12 12 12 12 10 9 7 8 10 4 3 4 5 6 4 2 2 1 2 1 3
12 12 12 11 11 10 9 9 9 9 10 10 10 10 11 12 11 12 11 11 12 11 9 7 5 6 8 5 4 3 2 2 1 1 1 1 3 4
13 13 12 12 11 10 9 8 8 8 9 9 9 10 10 11 10 11 11 10 11 9 9 9 8 9 5 4 4 6 2 3 4 2 1 1 1 3
15 14 13 12 11 10 9 8 8 7 7 8 8 8 9 9 10 10 10 11 10 10 9 9 7 5 6 7 3 5 5 3 1 3 5 4 2 2
16 14 13 12 11 11 10 8 8 7 7 7 6 7 7 8 9 9 10 10 9 10 9 9 7 4 3 3 4 6 6 4 3 3 3 2 3 2

GFSNE_925_spd_054.txt.gz
Wind_Speed
13 15 14 15 13 12 10 11 12 6 9 19 22 21 20 23 24 26 27 24 25 27 29 29 29 28 28 27 24 24 25 24 23 23 24 24 24 25
15 14 16 12 11 11 11 14 16 18 11 21 23 23 25 24 24 24 27 27 27 27 28 29 28 28 28 27 23 22 24 25 25 23 24 24 23 24
13 12 8 8 9 13 14 18 21 22 15 22 24 24 24 24 23 23 24 28 29 28 28 29 30 29 25 24 24 25 27 31 28 24 23 23 23 23
14 9 8 9 12 15 18 17 17 21 22 21 25 26 24 22 23 23 24 25 27 28 30 30 31 30 27 27 29 29 31 32 31 27 24 23 22 22
9 9 9 13 16 13 13 18 21 21 22 23 26 26 25 23 24 23 24 26 25 24 25 23 24 23 23 24 26 29 29 29 29 27 24 22 22 20
11 10 13 12 9 15 16 17 17 19 20 20 23 24 22 23 24 23 22 23 23 23 25 29 27 27 25 25 27 30 31 30 28 27 23 20 19 17
13 13 11 13 17 15 13 16 15 16 19 21 20 22 21 20 20 23 22 25 26 24 23 24 24 25 24 25 23 20 26 32 28 25 19 18 16 14
15 12 12 13 8 11 5 9 15 19 21 19 21 21 21 23 21 19 20 19 15 24 17 29 23 27 26 24 22 16 17 16 16 18 17 15 14 13
14 11 12 13 15 13 15 17 22 19 21 24 23 23 20 19 21 22 24 23 24 29 26 29 27 27 25 23 23 19 14 15 14 15 15 12 13 9
11 10 13 13 13 15 16 21 22 19 20 21 21 23 24 25 27 26 27 27 29 31 26 18 26 27 28 25 25 24 23 21 19 18 16 14 12 12
12 11 14 13 14 15 19 21 19 20 18 18 22 23 22 23 24 26 23 19 20 21 20 12 20 21 24 25 26 22 24 22 21 18 16 14 9 9
12 12 15 10 10 14 17 16 18 19 22 27 21 23 22 22 21 18 18 16 15 15 10 18 18 15 7 7 7 20 24 22 20 18 15 16 12 9
10 11 12 8 12 18 14 13 14 19 21 21 20 22 20 19 19 20 20 20 21 21 28 20 16 19 15 16 11 24 13 19 17 18 18 17 16 13
14 13 14 16 19 15 13 12 14 16 18 15 19 20 19 20 22 24 23 22 22 25 31 26 18 16 16 14 9 15 14 10 11 10 8 14 17 16
13 12 16 16 16 16 13 14 16 15 14 15 17 18 20 21 22 22 23 22 23 22 18 10 11 14 14 11 11 15 13 1 4 8 8 7 8 14
15 13 10 17 17 15 13 11 11 12 14 15 14 19 20 19 20 21 22 21 21 20 23 12 9 11 14 12 14 16 19 8 6 5 6 7 8 8
11 14 15 16 14 11 12 12 11 12 12 10 14 17 18 19 19 20 21 19 15 18 21 21 18 20 10 11 10 13 18 11 8 6 4 3 3 8
14 13 15 18 16 11 11 13 11 11 9 14 13 14 15 17 19 22 18 17 15 16 18 21 22 16 11 1 5 11 15 9 14 6 4 5 9 6
18 17 17 19 16 12 11 13 11 8 9 10 10 13 13 15 18 19 17 17 16 16 19 19 16 14 5 5 3 13 12 12 10 10 8 7 10 9
22 20 20 19 17 14 13 12 8 8 10 10 11 12 12 12 15 16 17 18 18 19 15 15 14 14 8 4 5 8 6 5 8 7 7 6 6 5
20 22 24 22 20 15 14 12 11 10 11 14 11 10 11 10 13 13 16 17 18 15 14 15 19 16 11 9 5 4 2 4 2 4 2 2 3 5
23 23 22 21 18 17 14 12 12 12 13 11 8 9 10 9 11 12 12 15 16 16 16 17 18 18 12 7 8 6 4 3 6 7 5 5 4 3
24 24 23 22 21 19 18 16 14 13 12 11 9 9 8 9 10 11 11 10 13 15 17 18 18 17 10 10 7 7 6 6 5 6 8 9 9 8

GFSNE_925_spd_057.txt.gz
Wind_Speed
14 12 13 13 12 11 10 8 5 3 5 14 20 22 18 22 23 21 22 22 22 25 27 26 24 24 23 23 24 26 26 26 24 24 25 25 26 27
6 6 8 8 7 5 5 9 11 13 8 16 17 19 20 21 22 22 22 24 26 30 29 23 23 22 24 25 25 27 26 24 25 25 26 26 27 27
10 10 7 5 5 6 9 13 8 11 8 16 24 23 22 22 22 23 23 24 24 24 24 25 26 25 25 27 26 26 26 23 25 27 28 28 27 27
12 8 9 8 7 8 5 7 11 16 13 14 20 24 24 22 25 25 26 24 23 24 23 24 24 20 21 21 22 24 26 26 30 33 29 25 26 26
10 10 10 10 10 7 9 13 16 15 17 19 21 26 26 23 25 26 24 25 24 21 21 23 27 28 25 23 24 24 25 26 29 30 30 28 27 25
10 9 11 10 6 10 12 10 11 13 15 19 21 21 21 23 24 24 22 22 23 25 24 25 26 23 22 26 23 22 24 26 27 28 30 28 25 23
8 7 6 8 10 9 5 8 9 12 17 19 18 18 19 20 19 22 17 20 25 25 26 26 22 31 32 27 25 24 22 22 22 22 23 25 23 20
13 10 8 7 6 7 5 6 9 13 19 16 17 16 21 22 15 21 20 20 14 19 14 35 26 32 30 27 25 23 23 21 19 16 14 16 17 19
11 7 5 6 9 8 10 14 17 20 16 17 22 19 19 20 23 22 22 20 22 30 22 28 29 30 29 28 25 25 25 23 20 17 15 16 16 16
8 8 8 10 11 12 14 15 20 21 16 14 16 21 24 24 25 24 25 27 27 27 21 15 24 25 28 27 23 22 22 23 22 22 21 19 18 16
12 14 11 11 11 11 14 19 22 21 14 13 18 16 18 20 21 21 19 17 16 19 20 20 17 26 25 26 12 13 10 18 21 22 23 21 19 15
14 11 10 11 10 12 16 19 18 17 16 19 18 19 20 18 18 16 19 17 18 13 13 15 22 15 8 16 13 14 19 26 18 19 19 17 17 15
13 13 13 13 12 13 16 15 14 13 16 18 18 20 20 20 21 20 20 21 20 19 25 22 22 20 13 9 12 18 18 27 11 14 16 18 16 16
17 15 14 13 15 18 16 13 13 14 16 18 17 21 20 23 24 22 21 20 21 23 25 32 14 14 13 10 8 15 21 21 8 11 14 15 16 17
21 17 14 13 16 17 16 17 16 17 18 18 18 16 19 20 21 21 21 20 20 18 19 22 17 13 13 11 10 15 16 17 5 5 9 8 13 16
22 18 17 17 14 18 17 14 13 12 13 14 11 15 17 19 21 21 22 21 21 20 20 19 22 18 13 11 11 14 16 8 12 5 4 5 6 8
15 18 16 16 18 17 18 16 13 12 12 11 11 13 15 17 21 20 20 19 15 17 20 24 22 12 10 6 7 14 18 16 5 5 4 3 6 9
16 20 20 18 18 21 20 16 14 13 12 9 10 10 13 15 19 20 18 17 16 17 18 21 19 17 9 7 13 12 19 10 10 4 3 3 4 8
22 22 22 22 22 21 20 17 16 13 10 9 9 11 12 13 15 17 17 16 15 18 19 18 15 13 5 2 6 14 11 8 8 10 8 11 14 9
22 21 25 26 26 24 22 19 16 13 12 11 12 11 10 11 12 14 16 17 16 15 15 17 15 14 9 3 5 8 6 5 5 7 9 12 13 11
25 25 27 28 28 27 24 22 18 16 14 12 11 10 10 9 11 11 14 15 16 14 14 16 21 16 13 8 4 3 2 4 4 3 3 3 3 4
27 27 28 29 27 26 24 20 20 18 15 12 11 10 8 8 11 10 13 13 13 14 15 18 17 19 12 3 6 5 3 4 7 9 10 9 3 2
29 29 28 27 28 29 26 23 22 20 16 13 13 12 10 10 9 10 10 9 9 14 17 17 17 17 13 13 4 4 3 4 3 8 12 11 11 9

GFSNE_925_spd_060.txt.gz
Wind_Speed
10 11 12 13 12 11 13 12 5 2 2 3 3 4 12 15 19 20 20 18 19 20 22 24 22 24 24 26 27 28 28 28 28 29 30 28 27 27
15 15 12 10 9 5 2 1 3 3 3 3 9 18 21 23 22 20 21 20 21 23 24 25 22 22 24 25 27 28 28 27 28 29 29 29 27 28
14 13 11 7 6 6 10 10 8 3 7 10 19 23 24 25 28 24 22 24 23 21 21 21 21 21 21 20 20 21 23 24 25 27 27 27 28 29
13 8 8 9 9 8 6 5 5 7 8 13 19 23 27 28 24 24 25 23 21 21 18 18 19 22 24 26 24 22 23 23 23 24 27 28 30 29
12 12 11 10 10 10 8 8 7 8 10 13 18 26 28 25 26 24 24 23 21 18 20 19 24 25 24 22 21 23 25 23 25 26 26 27 27 28
13 14 12 13 12 9 10 8 7 9 11 15 20 20 19 22 21 22 19 19 23 32 30 28 23 21 20 23 28 27 26 23 24 27 27 28 29 28
13 11 9 10 10 10 9 8 6 9 12 17 16 15 16 17 17 17 19 22 26 28 24 20 25 24 24 23 23 23 23 22 21 23 22 24 26 27
20 12 11 13 10 9 8 6 8 9 13 15 15 14 15 17 17 21 23 20 11 18 15 34 25 26 24 22 23 21 21 21 21 21 22 21 18 18
10 11 9 8 8 10 8 8 9 11 15 16 17 16 17 21 23 23 21 19 20 27 22 24 26 28 27 25 29 24 21 21 23 23 22 20 18 18
10 9 10 12 12 11 10 10 13 17 17 12 12 17 20 19 21 21 23 23 22 22 18 16 26 28 26 31 22 13 13 17 16 18 23 24 22 22
11 12 15 14 11 10 10 12 16 20 13 8 10 12 15 16 15 18 18 17 16 19 24 16 21 26 28 25 15 13 17 10 16 24 23 23 23 23
15 15 14 13 12 11 12 14 17 16 10 11 13 14 15 15 16 15 17 16 16 13 9 15 23 17 7 17 13 21 15 18 23 31 22 22 21 22
20 19 16 15 15 14 13 15 16 13 13 15 17 18 18 17 18 16 17 18 17 18 25 21 19 25 12 12 16 20 14 26 28 14 12 16 17 18
23 23 19 16 15 16 15 17 16 15 17 20 21 21 20 19 18 18 19 18 17 20 21 18 16 20 13 11 9 13 23 24 17 5 8 8 13 16
26 25 21 19 16 17 18 17 16 18 19 21 21 18 16 16 18 21 18 16 16 14 16 14 18 22 18 13 13 17 18 21 17 9 4 8 11 15
25 25 24 23 19 20 19 19 18 17 17 17 16 14 14 15 16 18 18 18 18 18 18 15 16 18 16 13 11 14 19 8 15 7 3 1 3 5
20 20 24 22 20 21 22 20 16 17 17 16 15 12 13 14 14 16 16 16 13 15 19 20 16 16 8 7 7 13 20 10 3 3 2 3 4 5
17 20 22 22 23 24 23 20 18 17 17 16 14 13 12 12 12 14 15 15 15 16 18 19 20 19 13 5 8 18 15 15 9 5 6 1 3 3
22 20 23 26 26 25 24 21 19 18 15 15 15 12 10 9 10 13 14 15 15 16 15 17 16 11 6 2 6 9 14 12 9 10 7 7 7 9
23 23 21 24 27 27 25 23 21 18 17 17 15 11 9 9 10 11 12 15 16 15 14 17 16 12 6 4 6 9 8 8 6 6 8 10 10 9
25 25 27 24 27 25 24 23 22 20 19 20 16 13 9 9 10 10 10 13 15 12 13 16 18 15 14 8 5 3 2 6 6 5 3 2 0 2
27 27 28 28 27 25 24 23 22 22 21 22 18 13 11 10 10 9 9 12 11 12 15 16 14 15 12 3 5 3 3 6 8 9 11 10 2 1
26 27 27 28 27 25 24 24 24 22 23 23 18 15 12 11 8 7 7 8 8 12 14 15 13 12 11 9 5 3 3 3 4 9 12 11 11 9

GFSNE_925_spd_063.txt.gz
Wind_Speed
10 13 14 14 14 16 14 14 6 3 2 3 4 5 13 19 21 23 25 25 23 22 22 21 21 23 25 27 28 30 30 30 30 30 31 33 34 33
15 15 15 12 12 12 10 8 8 6 2 5 11 13 17 18 19 22 23 22 23 24 22 22 23 25 25 25 25 26 26 27 28 29 30 31 33 33
15 14 13 10 9 9 9 11 13 10 7 10 11 15 18 21 24 22 22 21 20 19 19 20 20 19 19 19 20 21 22 22 23 25 27 28 30 32
17 14 12 10 13 13 12 12 10 10 11 12 15 18 22 24 22 21 20 19 18 19 17 17 20 22 22 24 24 23 23 23 23 25 26 26 27 30
16 16 15 14 15 15 15 14 12 11 11 12 15 19 22 24 23 22 20 19 18 16 25 25 24 24 24 24 25 25 23 24 27 28 28 29 28 27
17 16 16 15 14 16 17 15 14 12 12 13 18 20 19 22 19 19 19 19 26 26 23 19 17 20 23 23 23 25 27 27 27 27 27 27 29 29
17 18 17 17 16 13 16 17 14 13 13 14 16 16 15 16 15 17 21 24 26 20 21 23 25 25 21 19 20 18 20 22 23 24 25 26 27 26
20 20 20 16 14 18 17 15 14 13 14 13 16 14 15 14 18 19 19 17 9 13 19 29 25 29 27 25 21 22 24 24 24 24 24 25 24 25
21 18 14 13 11 12 14 15 14 14 14 15 18 17 15 17 18 20 18 19 19 24 21 23 25 30 26 26 25 26 24 20 22 24 25 26 26 25
19 16 15 13 13 15 17 17 16 14 15 17 14 13 15 15 17 18 20 22 21 21 20 16 25 27 30 32 28 20 16 16 18 20 21 21 24 27
18 17 17 17 17 16 17 17 16 15 16 12 10 11 12 13 14 17 19 16 17 19 24 15 17 28 27 26 17 17 15 19 20 19 21 26 27 27
21 21 20 19 17 16 18 17 16 16 13 10 11 12 12 14 15 16 16 14 15 12 4 15 22 16 8 16 16 20 21 21 21 22 31 29 34 29
24 24 22 21 19 18 18 18 19 16 14 13 14 16 18 17 15 15 15 17 18 15 23 18 16 20 12 15 20 22 15 17 26 28 21 18 17 20
27 25 24 22 21 20 19 20 18 17 17 18 19 20 21 18 15 16 17 17 17 20 20 16 15 19 19 20 15 20 25 22 17 17 10 6 9 13
29 28 24 25 23 21 22 19 18 19 20 20 20 21 18 15 15 16 17 15 15 15 14 16 16 19 19 16 16 18 19 19 17 15 9 6 8 11
23 25 25 26 25 25 23 22 22 20 22 21 20 20 18 15 15 14 16 17 17 18 16 13 13 15 17 15 17 17 20 10 18 9 7 6 4 2
21 25 22 20 21 23 25 23 21 22 21 20 20 19 17 13 15 12 13 15 14 16 20 19 18 17 12 12 8 16 20 15 9 5 6 6 6 5
21 21 19 18 21 22 22 24 23 21 21 20 19 19 17 13 13 10 11 13 15 17 19 19 21 21 15 6 8 12 17 16 14 10 7 2 7 4
23 21 23 21 23 25 25 25 25 22 17 17 18 18 16 13 11 10 11 12 14 17 18 18 18 12 5 2 8 8 16 17 12 12 11 9 6 11
22 22 24 28 26 25 24 23 25 22 19 17 17 17 16 13 12 11 10 11 13 15 15 17 15 13 6 4 5 13 11 11 11 9 9 6 6 6
21 24 26 26 27 27 26 22 21 21 19 18 19 19 18 14 13 10 10 9 11 12 13 17 19 16 15 11 5 5 3 6 9 9 7 6 5 4
20 22 27 27 27 27 26 24 21 20 20 19 20 20 18 15 14 10 9 8 9 10 15 19 15 14 9 4 5 2 2 5 8 9 12 11 4 3
16 20 24 25 27 26 24 23 21 21 21 20 20 22 19 17 14 11 9 7 7 9 13 17 14 12 11 8 4 3 3 2 5 10 12 13 11 8

GFSNE_925_spd_066.txt.gz
Wind_Speed
6 7 11 14 15 15 15 15 8 8 4 5 7 9 11 18 20 23 24 25 25 24 23 22 23 24 24 25 27 30 31 32 32 33 33 32 33 33
8 9 12 14 12 12 12 13 13 11 4 7 10 13 13 18 18 20 23 23 23 22 21 21 21 22 23 24 24 25 26 27 27 28 29 29 30 32
10 12 13 12 11 12 11 12 12 12 8 10 11 12 15 18 21 22 22 21 19 18 18 19 20 20 21 22 23 23 23 24 25 26 27 27 27 28
12 14 15 14 13 14 16 17 18 17 14 13 14 15 17 20 21 21 19 18 18 17 17 18 21 24 25 25 25 26 26 26 26 27 27 28 28 28
15 16 17 17 17 18 18 18 17 16 15 15 14 14 17 21 22 21 19 19 19 21 20 20 19 20 20 21 22 24 25 26 26 27 28 29 29 28
16 17 18 19 19 20 18 18 18 17 16 16 16 17 17 19 19 16 17 18 23 22 18 15 18 22 21 21 21 21 22 23 24 27 30 32 32 30
17 17 18 19 18 18 19 19 17 19 16 15 16 15 16 16 13 14 18 23 23 12 19 22 25 26 26 24 22 21 19 20 21 23 25 28 28 29
19 20 20 21 23 20 17 19 21 19 17 15 16 14 18 17 15 16 17 15 9 9 22 27 22 28 28 24 22 22 23 23 24 25 27 28 28 28
20 22 22 20 16 16 14 14 16 17 18 17 18 21 19 16 14 16 13 16 19 22 23 25 23 27 26 29 26 24 25 25 24 22 21 25 28 29
22 22 21 19 16 15 15 17 19 20 19 18 20 21 16 13 13 16 17 21 21 20 17 17 22 24 30 30 19 14 17 17 18 19 23 26 24 25
23 21 21 20 18 18 18 20 20 22 19 18 18 15 13 13 13 15 18 14 14 16 20 13 12 26 24 20 13 21 23 20 19 24 25 25 26 25
27 24 22 23 22 21 20 21 21 23 19 17 16 15 14 14 14 14 15 15 13 11 4 13 20 12 9 12 23 24 25 17 18 21 24 31 30 31
21 28 25 22 23 22 23 23 24 21 19 17 17 17 17 17 16 14 14 16 17 15 22 14 13 15 10 19 21 29 19 30 24 21 20 19 18 20
24 26 27 24 22 22 24 27 24 20 20 20 20 21 22 20 16 14 14 16 18 21 21 18 15 15 15 19 17 22 28 29 25 19 17 16 12 9
26 26 24 25 27 23 22 26 24 22 23 23 21 23 22 18 15 14 15 16 17 17 15 14 16 17 17 17 17 19 23 22 18 17 18 12 10 9
26 25 24 22 20 21 22 22 27 26 25 26 24 22 19 17 16 13 15 15 17 18 15 13 12 13 16 18 19 21 17 12 23 18 11 10 8 6
23 20 20 21 21 22 23 23 25 27 28 25 23 21 20 17 16 13 13 12 12 13 16 19 15 17 17 17 17 15 15 18 19 19 11 9 6 7
20 20 18 19 18 17 20 22 23 23 24 23 21 20 20 18 16 13 12 12 13 15 16 19 17 18 13 6 7 10 12 15 20 16 12 6 6 6
21 18 18 19 20 21 22 23 23 25 22 21 20 19 18 16 14 14 12 12 13 14 16 16 13 9 5 3 9 8 9 13 15 13 11 8 4 9
14 17 18 22 25 24 24 24 25 23 21 22 19 19 18 16 16 14 13 11 11 13 13 14 12 8 7 4 6 17 11 8 10 12 10 10 8 7
17 19 20 21 24 26 26 26 25 23 20 20 20 20 19 18 18 15 13 11 10 10 11 15 18 13 15 9 5 7 4 3 6 9 12 7 5 6
23 22 19 18 23 23 25 25 24 22 21 20 20 20 19 20 18 15 13 11 9 10 12 18 15 11 6 4 8 2 1 3 5 7 11 11 5 3
26 24 24 24 19 18 21 22 23 23 21 22 22 22 21 20 19 15 13 11 9 9 10 15 12 9 7 5 5 2 0 1 2 7 11 13 12 8

GFSNE_925_spd_069.txt.gz
Wind_Speed
9 10 9 9 10 12 12 12 13 10 9 8 11 8 10 12 16 19 20 23 27 27 27 25 22 22 23 24 25 27 29 30 32 33 33 33 33 34
12 13 12 11 11 11 11 12 14 16 10 14 12 13 12 13 14 17 19 25 23 25 23 22 21 22 22 23 24 25 26 26 28 29 29 29 30 30
15 14 14 12 12 12 13 14 15 15 16 18 14 12 11 13 15 16 18 19 19 19 19 19 21 22 22 22 23 25 26 27 28 29 29 29 29 29
16 14 15 13 14 14 15 16 18 19 18 21 18 14 12 13 15 17 17 18 18 18 18 22 23 23 24 24 24 25 26 27 29 30 29 30 30 30
16 15 15 14 16 17 17 19 19 18 17 18 18 14 13 13 15 17 17 17 17 18 20 20 18 18 19 21 22 23 25 26 27 29 29 28 28 28
17 18 16 16 18 18 19 20 17 17 17 16 17 17 15 14 14 16 17 16 18 19 19 15 16 20 22 22 21 21 21 22 23 24 26 26 28 29
18 19 19 20 21 21 19 20 18 19 17 16 17 16 16 15 16 16 17 18 18 18 14 15 20 21 20 19 19 19 19 20 21 22 24 26 27 27
21 21 19 21 21 23 25 26 22 18 18 18 18 18 18 16 15 15 15 16 13 11 18 23 21 23 20 17 18 22 22 23 23 25 26 27 28 28
22 21 19 18 22 19 19 20 20 20 20 17 19 19 18 15 14 14 14 15 17 20 23 24 22 21 17 18 21 22 17 17 20 23 26 26 23 24
22 22 22 22 20 18 17 17 16 16 17 18 19 18 17 16 14 14 16 17 19 19 17 19 17 20 20 21 18 9 17 18 19 19 20 20 22 27
22 22 24 25 23 22 19 19 19 18 17 22 22 20 20 17 14 14 16 16 18 19 18 13 17 22 21 20 11 12 21 19 14 18 19 22 26 27
22 22 26 28 26 24 24 22 20 20 16 14 15 16 16 16 17 16 16 16 16 14 5 11 18 16 9 10 12 21 18 19 24 22 19 19 21 22
25 24 24 23 22 25 25 24 25 21 17 16 15 15 14 15 15 15 15 15 16 18 19 14 14 19 14 22 19 21 18 22 21 20 19 17 16 18
29 29 26 24 22 22 23 28 28 25 19 16 16 17 16 16 16 15 14 14 15 19 19 16 17 18 20 22 24 18 21 21 20 17 18 17 18 16
29 32 33 27 23 21 22 24 28 22 19 17 19 19 17 14 14 13 13 13 15 17 16 15 17 19 19 21 24 24 23 22 16 23 18 14 12 11
28 29 31 29 25 22 18 16 18 19 20 21 20 19 15 12 13 13 13 12 15 15 12 12 13 15 19 21 21 23 20 15 20 19 18 15 11 10
31 28 20 17 17 18 15 15 15 15 17 20 19 17 15 13 14 12 12 11 14 14 14 12 12 14 18 21 22 19 17 14 15 17 17 14 11 10
22 18 16 16 16 15 15 15 15 17 18 17 17 17 15 14 14 12 11 11 13 13 13 13 13 13 12 11 14 14 11 10 14 15 13 11 8 7
17 12 12 12 13 14 16 17 17 17 17 17 16 16 14 14 13 12 12 11 12 12 12 11 10 9 7 6 9 10 9 12 12 13 11 10 11 11
21 22 21 18 14 14 14 16 16 16 15 15 16 15 14 14 14 13 12 11 11 11 11 10 9 8 10 7 8 11 12 8 9 10 12 13 11 10
20 19 19 19 19 19 15 14 15 15 15 14 15 15 15 15 15 14 12 11 9 10 10 10 9 12 12 9 7 10 5 5 3 7 12 12 8 6
19 19 18 19 19 18 19 18 15 13 13 14 15 14 15 16 16 14 12 10 9 9 10 10 10 8 7 9 10 8 2 1 3 4 8 8 7 5
19 19 19 19 18 18 18 18 19 16 13 12 13 15 15 16 16 14 12 10 9 8 7 8 8 6 6 6 8 5 2 3 2 3 4 10 9 6

GFSNE_925_spd_072.txt.gz
Wind_Speed
9 10 12 12 13 13 15 16 17 11 11 19 15 13 14 16 17 16 19 21 24 28 24 24 21 21 22 23 24 24 25 26 28 29 31 32 32 33
11 12 14 14 15 15 17 17 18 20 13 21 20 17 15 18 19 18 21 22 23 22 24 24 22 21 21 22 23 23 23 24 25 27 28 29 29 30
14 15 17 17 18 18 19 19 20 20 21 25 22 21 17 19 20 20 21 23 23 22 20 21 23 22 23 23 24 25 26 26 26 27 28 29 30 30
17 18 19 19 20 20 21 21 22 23 25 24 26 25 19 19 19 21 22 21 22 21 21 26 23 23 23 23 22 22 23 24 25 27 28 28 29 30
19 20 21 21 23 22 22 23 24 25 25 24 25 25 22 19 20 21 21 21 21 19 22 23 21 20 22 22 23 24 25 25 26 26 27 27 28 28
20 21 22 23 25 24 23 24 25 25 25 22 24 22 23 21 19 20 21 18 20 19 21 22 20 20 23 22 22 24 24 24 24 24 24 26 27 25
20 21 23 25 26 26 25 26 26 24 21 21 21 22 23 20 20 18 18 21 20 19 19 16 17 21 21 21 21 21 20 19 21 23 24 25 25 25
23 24 24 25 26 27 28 28 28 27 27 25 22 20 24 20 20 17 19 19 16 16 15 21 20 22 21 20 17 20 23 22 23 24 26 27 29 28
24 26 26 26 24 24 26 27 26 26 29 27 26 23 21 20 20 20 18 19 20 19 20 22 19 21 19 20 18 18 21 17 16 19 22 24 25 27
25 26 27 28 27 28 28 28 26 23 21 21 23 25 22 20 17 18 18 19 20 21 18 20 21 21 20 22 21 18 16 14 18 17 17 20 22 24
28 29 30 30 29 29 25 27 27 25 22 25 26 25 23 23 22 18 17 17 18 19 16 19 16 20 21 21 13 9 13 21 20 21 22 21 22 23
30 32 32 31 31 32 25 27 25 26 22 22 18 17 19 19 20 18 18 18 18 19 13 12 17 20 14 17 10 19 16 18 20 22 21 21 20 17
28 29 29 28 27 31 26 27 29 25 23 23 21 20 18 18 17 18 19 19 19 21 17 15 19 20 19 22 21 18 19 16 19 22 17 18 18 16
29 29 29 28 29 31 32 24 27 28 26 23 20 21 21 19 18 18 19 19 19 21 20 17 18 20 21 21 22 20 18 20 19 22 18 20 16 15
28 32 35 34 32 31 33 26 24 25 25 23 20 21 21 20 17 16 16 17 18 19 19 18 19 20 20 22 23 22 18 19 19 14 20 19 18 14
24 28 30 31 31 30 27 23 20 18 19 18 17 20 19 17 17 16 15 15 15 16 16 15 16 17 20 21 22 22 20 15 18 17 18 20 18 15
26 24 22 20 21 18 17 16 15 16 20 21 20 18 18 17 17 16 15 15 15 16 16 13 14 16 19 21 22 21 19 17 16 13 16 17 15 10
19 19 20 18 16 16 13 15 15 16 18 19 18 18 17 17 17 15 15 15 15 15 14 13 13 14 16 17 20 16 14 15 12 14 15 16 17 12
15 16 17 19 20 22 14 13 13 14 17 17 19 17 18 17 16 14 15 15 14 14 14 12 12 12 8 7 9 8 11 12 12 13 12 13 16 17
15 16 17 18 19 19 20 20 18 14 14 15 15 17 17 16 15 15 16 14 12 12 12 11 12 11 11 8 11 15 13 11 10 11 12 15 16 15
16 16 17 17 18 18 18 19 20 21 15 13 14 16 17 16 15 15 15 12 10 11 12 12 9 9 11 10 10 14 7 7 7 7 11 13 13 10
16 17 17 18 18 18 18 19 19 20 19 16 12 14 16 16 15 15 15 13 11 12 12 10 9 9 9 11 13 13 9 3 5 5 4 6 7 6
17 17 18 18 18 18 18 18 18 18 18 18 18 11 13 15 15 15 14 14 12 11 10 9 8 8 9 9 9 11 7 6 3 4 5 8 8 6

GFSNE_925_spd_075.txt.gz
Wind_Speed
12 13 14 14 14 15 15 15 16 11 11 21 21 21 21 19 18 17 18 20 17 24 33 29 24 21 20 21 21 21 22 23 24 26 27 28 30 31
13 14 15 15 16 16 17 18 18 20 12 23 25 23 22 23 21 15 21 24 26 29 24 27 24 22 22 21 22 22 23 23 23 25 26 27 28 29
15 16 16 16 18 19 20 20 21 22 20 24 25 26 24 25 25 23 22 22 25 25 22 22 24 26 25 23 24 23 22 23 23 24 25 26 27 29
17 18 18 19 20 21 22 23 23 24 24 24 27 27 26 24 23 22 20 23 27 25 23 24 30 27 23 23 23 22 21 22 22 22 22 23 24 27
18 19 20 21 23 23 24 25 25 27 25 25 27 26 26 24 26 22 22 24 24 26 24 25 22 21 20 25 22 21 22 22 23 23 23 23 23 23
17 19 20 22 24 25 26 26 27 26 25 26 26 24 25 28 26 25 22 24 21 21 22 23 25 23 23 24 24 24 24 22 20 20 22 23 24 23
19 20 22 24 25 27 28 29 28 28 26 25 26 21 24 25 23 20 20 20 22 18 21 23 21 19 21 22 21 19 15 17 18 20 22 24 25 24
21 22 24 26 27 29 32 34 32 27 29 29 27 26 27 26 21 18 18 18 16 19 20 20 19 22 22 21 20 21 22 21 20 21 22 22 23 24
22 24 26 27 27 28 29 31 31 33 33 31 27 27 28 25 21 20 20 21 21 20 19 20 21 22 21 22 21 20 23 23 19 16 19 22 22 23
23 25 28 29 29 29 29 30 31 30 27 24 25 27 26 24 20 18 17 18 20 21 20 21 22 21 20 18 22 24 22 18 19 19 19 20 22 23
24 26 29 31 32 33 31 29 29 28 29 28 27 30 26 23 23 18 18 18 18 20 21 22 19 18 19 21 20 15 11 16 19 16 20 22 24 24
21 23 25 27 29 31 30 28 28 25 27 26 23 24 28 26 25 24 21 19 19 17 20 17 17 17 15 21 9 20 21 18 19 21 19 23 19 18
23 25 24 26 29 30 29 26 27 27 27 27 24 24 22 21 19 20 21 20 20 20 19 18 17 17 18 21 21 20 21 20 18 19 19 21 18 19
25 26 28 30 34 37 36 33 30 33 29 25 25 21 21 21 21 21 21 23 23 23 20 18 17 16 19 20 20 20 20 20 19 20 21 22 19 17
24 28 33 34 36 34 29 25 24 26 22 21 22 23 23 24 19 18 20 22 22 22 20 19 19 19 19 20 21 21 21 21 18 19 16 18 18 21
23 29 30 31 29 27 27 22 21 22 22 19 19 19 17 15 19 19 18 16 17 18 18 19 21 19 18 19 20 21 21 19 20 21 20 16 19 20
27 26 21 21 20 21 22 19 17 19 19 19 18 17 17 16 18 17 16 15 16 17 16 17 17 19 19 19 20 21 19 18 18 19 10 15 19 19
19 18 17 17 18 20 22 22 18 18 19 17 18 18 17 17 16 16 17 17 17 14 16 16 13 13 15 18 21 21 19 17 16 13 13 15 18 18
14 15 15 17 19 20 20 21 23 24 24 14 17 18 19 18 18 16 16 16 15 15 15 15 13 12 8 8 13 7 11 12 12 14 13 13 17 23
14 15 16 17 18 19 20 20 21 23 24 26 19 16 17 16 17 17 16 14 15 14 13 14 13 13 13 7 10 17 17 14 10 11 11 14 19 20
15 16 16 17 18 18 19 21 21 20 22 23 20 20 15 16 17 16 14 14 14 12 12 13 12 6 7 9 9 16 15 10 13 9 8 12 12 13
15 16 17 17 18 19 19 20 20 22 20 21 21 22 21 13 16 14 13 13 16 14 12 14 10 9 9 12 13 13 14 5 6 7 7 5 5 5
16 16 18 17 17 18 19 19 20 21 20 21 18 20 23 21 18 14 13 14 12 11 11 10 10 10 11 13 12 11 14 11 8 6 11 8 6 7

GFSNE_925_spd_078.txt.gz
Wind_Speed
10 11 12 13 15 16 16 15 13 4 4 17 19 19 22 22 21 21 22 21 20 23 22 22 22 24 20 19 21 23 23 23 23 23 23 24 25 26
12 12 14 15 16 17 17 18 19 21 7 18 22 23 21 23 21 22 20 21 21 24 25 23 24 22 22 24 22 24 24 24 23 23 24 24 25 26
16 16 16 18 20 20 20 20 21 21 17 23 24 25 25 26 28 26 20 18 20 20 24 23 22 21 26 25 24 24 22 22 22 22 22 22 23 24
14 18 19 18 19 20 22 24 26 27 27 24 26 26 25 23 21 17 21 21 21 19 24 26 27 27 23 22 24 24 21 21 20 20 21 22 22 23
15 14 15 17 19 21 22 23 24 25 25 26 26 28 26 22 18 21 24 23 22 21 23 25 22 19 21 23 26 25 25 24 22 20 19 19 21 21
12 13 15 18 21 23 25 23 23 22 21 23 24 24 22 25 24 24 25 25 21 18 20 22 19 22 22 22 22 24 29 28 24 22 22 22 21 20
12 14 17 20 21 24 26 29 30 31 28 26 24 24 23 24 23 24 21 20 22 16 19 17 18 19 15 15 18 22 17 15 16 19 21 21 22 22
15 17 19 21 24 26 26 25 27 31 30 26 23 19 22 23 24 22 18 13 7 14 16 16 13 17 18 21 21 22 20 20 23 22 20 19 18 20
15 18 21 20 23 26 27 25 26 27 29 31 29 27 26 26 23 22 16 17 12 13 14 18 18 21 24 22 21 20 21 23 24 21 21 16 17 18
15 18 20 22 23 24 29 31 32 28 26 26 27 32 31 28 25 16 11 14 14 15 15 17 25 25 24 21 19 19 22 18 15 18 18 19 19 20
18 20 19 22 22 25 28 30 31 30 27 28 29 29 25 28 27 22 20 16 13 20 20 20 23 22 19 19 17 17 16 17 20 20 19 20 22 22
14 17 21 22 23 24 27 29 28 30 29 27 26 27 30 27 30 28 28 19 17 12 22 18 19 12 6 16 8 18 21 21 21 21 21 21 20 22
19 20 21 22 25 28 30 34 34 36 33 29 26 24 25 25 24 24 25 24 21 20 20 15 18 15 12 14 17 20 24 25 22 22 22 22 22 21
16 21 23 28 32 32 32 33 33 30 28 24 23 25 21 22 23 26 24 27 27 27 23 17 14 13 15 14 14 19 21 23 24 25 24 23 20 20
19 21 26 28 27 28 24 25 26 28 23 21 22 22 23 23 23 22 25 24 24 27 25 24 23 22 19 19 17 20 22 25 24 18 22 23 21 21
21 24 25 23 19 22 24 25 26 28 23 22 22 23 21 19 19 20 19 18 22 24 26 24 23 24 24 22 21 21 24 18 25 25 22 22 23 15
22 22 23 16 19 22 25 24 24 25 28 21 22 23 20 17 17 16 18 18 18 15 16 19 20 23 26 24 20 24 23 22 24 23 20 14 16 16
18 20 17 16 16 17 20 22 23 24 25 29 31 20 18 18 15 14 16 18 17 16 16 16 16 17 17 21 23 25 22 22 19 14 12 17 20 20
15 16 15 16 17 17 17 21 23 24 26 23 25 25 25 21 19 19 15 18 17 17 16 14 16 15 4 3 17 11 10 11 16 18 17 14 16 25
14 15 15 16 17 16 18 21 23 24 24 26 25 25 25 29 16 16 15 16 16 15 14 16 17 17 13 4 2 12 15 16 17 16 16 16 18 15
13 14 15 17 17 17 19 21 22 22 24 24 25 25 25 25 27 15 17 20 18 13 12 14 14 11 6 6 5 13 15 13 16 15 11 12 15 9
11 14 16 16 18 18 19 19 20 21 21 23 23 24 23 24 24 24 24 15 17 16 15 12 11 10 10 10 13 18 18 9 12 10 13 13 7 3
14 17 17 16 17 19 19 20 20 20 21 22 22 22 24 25 26 26 25 13 14 17 15 12 12 10 10 11 15 18 15 13 11 13 14 12 14 12

GFSNE_925_spd_081.txt.gz
Wind_Speed
12 14 13 12 15 15 14 14 11 3 3 17 22 21 21 23 26 25 26 24 24 24 22 20 17 19 19 18 18 16 18 21 21 22 22 22 23 24
12 13 12 15 16 15 15 16 16 16 7 17 20 24 23 23 23 26 26 27 27 25 20 19 21 21 21 22 20 17 19 19 20 20 20 21 22 23
12 16 18 16 16 17 18 20 22 23 17 21 25 30 30 28 28 28 31 26 20 20 24 25 22 24 24 24 19 18 20 18 18 17 17 18 20 22
16 19 17 19 21 17 17 19 23 25 29 24 26 28 23 20 20 20 12 11 19 22 22 27 25 25 24 21 19 20 19 18 21 20 18 17 17 18
16 17 15 11 12 14 15 16 19 21 22 25 24 18 16 19 22 23 26 26 27 27 28 24 25 20 15 17 19 20 19 19 22 24 23 22 21 20
16 10 8 9 13 16 19 21 22 23 25 29 32 30 31 30 23 22 26 26 24 25 22 21 21 19 18 18 18 17 16 19 21 22 21 23 24 24
10 8 9 11 13 15 17 20 20 22 24 28 25 26 26 26 24 26 23 23 24 25 21 16 20 16 19 13 12 14 18 18 17 17 19 22 24 25
9 12 13 15 17 18 17 16 13 14 18 19 21 19 25 26 25 27 24 13 6 17 16 20 13 12 14 16 20 22 19 18 16 17 20 20 19 21
7 10 12 12 13 17 20 22 24 25 25 21 25 24 26 25 27 25 26 22 20 21 15 19 18 20 22 24 20 17 16 17 19 17 17 19 20 19
6 7 11 15 17 18 22 25 26 27 26 25 24 29 32 32 30 31 30 29 23 20 16 14 20 23 24 19 16 15 17 17 13 15 17 18 20 20
10 13 14 16 18 18 21 25 28 30 29 28 26 29 29 25 26 24 22 20 14 18 20 19 22 20 19 18 18 15 13 8 12 14 17 20 21 22
10 12 13 13 14 17 21 27 29 33 34 33 31 29 30 30 26 25 27 20 14 6 19 11 18 13 5 12 14 8 12 19 24 21 18 19 20 22
12 15 16 16 17 20 20 22 24 27 31 29 29 28 25 23 24 23 25 30 21 21 20 11 9 11 9 10 16 18 19 23 20 20 21 20 19 21
12 14 17 19 19 17 15 18 19 22 21 23 23 23 23 24 24 25 26 27 29 28 25 18 14 16 15 11 10 17 20 24 22 22 21 17 18 21
12 14 18 18 15 12 17 19 19 20 21 22 23 24 23 25 27 28 24 28 25 25 27 25 24 23 20 17 13 19 21 25 23 12 19 23 21 18
16 17 17 15 9 16 19 20 17 19 19 18 22 26 28 25 27 22 19 19 21 22 25 25 26 24 20 22 22 20 25 15 26 27 23 24 18 12
16 15 16 14 14 16 18 17 19 20 20 23 22 25 27 26 26 27 21 19 15 14 17 20 21 24 23 23 18 20 25 25 27 26 22 17 16 17
13 15 16 12 14 16 16 17 17 18 21 22 22 22 24 26 28 21 20 20 17 15 18 18 16 19 18 21 21 24 25 26 22 13 12 15 20 16
9 12 11 13 15 15 16 16 17 18 22 19 21 23 24 24 25 27 19 19 17 15 21 20 17 14 5 4 15 13 20 17 13 20 17 13 16 20
10 10 11 13 14 14 17 19 21 22 20 22 22 21 23 22 23 23 26 19 19 16 16 20 19 17 12 7 7 10 11 14 16 17 17 12 15 13
7 8 11 13 14 16 16 17 18 19 20 22 24 21 21 22 22 23 23 25 25 15 15 17 21 16 14 9 3 10 12 8 13 13 15 10 13 5
9 12 13 12 13 16 17 17 20 20 20 23 23 19 21 21 22 23 23 25 23 22 18 17 13 12 14 11 11 11 13 14 9 12 11 12 10 2
14 13 13 15 17 17 17 19 21 21 21 21 18 22 22 23 22 21 23 24 22 27 16 16 16 14 14 13 13 14 16 18 12 11 10 11 16 17

GFSNE_925_spd_084.txt.gz
Wind_Speed
17 16 16 18 16 13 12 13 10 3 4 10 11 18 20 19 20 22 24 26 25 27 26 29 31 26 23 20 19 20 20 19 18 20 21 22 22 23
22 20 23 19 15 14 14 18 16 16 3 12 18 23 23 22 23 26 28 28 28 28 27 30 29 26 25 25 24 23 22 20 18 18 17 17 18 20
24 22 22 18 16 16 19 21 20 20 14 17 22 25 25 25 26 24 24 26 26 26 21 19 24 29 31 32 31 26 26 22 19 17 17 16 16 17
23 22 21 18 19 19 19 20 20 20 21 20 23 23 23 23 23 21 24 23 22 24 27 28 28 31 34 35 29 29 26 23 22 20 20 19 19 19
21 20 17 17 18 16 14 13 15 17 20 23 24 24 23 19 23 27 28 26 27 27 26 26 25 28 31 31 28 23 21 21 23 22 22 22 20 21
16 18 16 14 12 10 9 10 11 15 18 20 22 24 22 22 23 25 28 28 30 25 27 24 24 26 22 21 21 22 23 23 20 21 23 22 20 21
15 13 12 9 6 5 8 9 11 11 13 15 16 19 20 20 21 25 28 31 31 30 26 27 24 21 29 25 23 20 18 18 20 22 20 19 19 21
18 13 10 8 9 7 6 6 9 12 15 15 18 19 22 22 23 24 24 19 16 20 23 25 21 19 18 19 18 18 21 23 23 20 17 17 19 19
10 9 7 7 8 9 11 14 16 16 17 16 20 22 24 23 24 24 21 23 26 29 24 24 20 19 18 22 20 22 19 19 17 16 17 15 15 16
7 6 6 7 10 13 16 19 20 20 20 21 23 25 25 26 26 27 26 25 26 30 28 20 25 26 23 22 20 17 16 16 15 12 12 15 15 16
4 5 8 11 12 13 15 17 20 22 20 19 20 23 25 27 24 25 23 21 20 21 22 23 20 21 23 21 15 15 16 15 13 11 15 18 19 18
4 6 7 8 9 10 12 16 18 19 19 22 23 24 24 26 24 21 23 20 19 16 21 18 19 14 5 8 10 10 11 12 14 19 19 16 15 18
4 7 9 9 10 12 10 10 12 17 18 20 18 20 23 24 23 22 23 24 22 21 24 21 14 14 10 5 10 12 15 17 17 18 17 17 16 15
6 9 11 12 12 9 5 9 14 17 18 19 18 17 19 22 23 23 24 26 28 30 26 22 13 17 15 10 9 10 15 17 17 17 14 9 13 16
8 9 10 10 8 3 7 10 13 15 16 18 15 19 20 25 26 23 24 25 26 28 29 30 26 23 18 18 9 12 14 19 19 12 13 19 17 16
10 12 9 8 3 5 8 10 12 13 13 13 18 18 22 23 22 22 25 24 23 21 21 23 27 24 21 24 20 17 19 10 18 20 20 19 14 11
12 10 9 6 4 7 9 8 11 11 11 15 15 20 19 22 22 24 22 29 23 18 17 18 18 21 25 22 14 18 19 20 20 19 17 15 14 13
10 7 3 4 7 7 9 9 10 12 13 13 18 17 18 21 22 24 23 22 26 21 18 15 16 15 16 20 23 20 21 21 20 18 16 16 22 16
8 5 3 6 7 7 9 10 11 12 13 15 16 20 18 19 21 23 22 22 23 26 16 18 15 16 5 4 10 11 17 16 16 15 15 16 16 15
6 2 4 6 7 7 8 10 11 13 14 13 18 19 17 16 19 20 20 22 21 24 26 19 18 18 12 8 6 10 12 15 14 16 17 15 13 10
3 5 7 8 9 10 12 13 13 15 15 17 18 15 14 19 18 19 21 21 22 20 19 14 19 18 19 14 4 8 10 11 12 13 14 10 6 2
8 9 9 10 12 13 14 13 15 16 16 16 14 14 22 20 21 19 19 22 22 20 23 28 18 16 16 16 12 10 9 7 7 10 12 12 8 3
8 7 9 11 12 13 13 15 18 17 15 12 18 22 20 19 19 17 22 22 21 22 23 24 13 19 18 16 13 12 11 10 8 9 12 8 11 14

GFSNE_925_spd_087.txt.gz
Wind_Speed
32 30 28 22 21 20 19 15 10 3 3 10 12 15 15 15 16 16 18 19 21 23 22 23 24 27 30 27 23 22 23 26 26 23 20 20 21 22
33 31 29 27 25 23 21 17 18 18 4 11 17 19 19 19 19 20 21 23 24 22 22 23 23 26 28 29 26 31 32 29 28 25 22 20 20 20
33 34 32 27 25 24 21 21 21 22 13 15 17 20 21 21 21 21 22 23 24 23 25 26 27 26 27 30 34 34 33 31 29 27 24 22 21 21
36 36 31 26 23 21 21 22 23 22 20 17 20 18 19 19 19 21 21 22 24 25 26 27 28 28 28 31 33 34 36 32 31 30 26 24 23 23
37 32 27 23 21 21 23 21 20 17 16 15 15 17 16 19 20 20 22 24 26 26 29 29 28 28 29 31 31 31 31 32 27 26 28 28 26 24
32 25 21 20 19 21 20 16 14 15 15 15 15 14 14 15 17 20 24 26 27 25 28 31 32 31 32 29 30 30 25 23 23 27 30 26 25 27
23 17 17 16 15 16 14 13 12 12 13 12 12 14 18 18 18 19 24 27 29 27 29 30 30 34 31 27 28 29 27 23 25 27 25 25 27 25
14 12 11 14 14 11 11 10 9 9 11 13 15 16 19 21 22 21 20 20 9 14 20 25 22 27 29 26 25 23 24 19 19 23 26 26 22 21
17 17 15 11 8 8 8 9 11 13 14 15 18 20 22 22 21 23 22 22 21 23 23 26 25 32 28 26 25 21 20 22 25 24 22 20 20 19
16 12 10 7 6 8 9 10 12 13 13 14 16 19 20 21 22 24 25 26 26 24 20 21 22 28 30 26 25 23 23 24 21 20 19 18 18 20
11 7 4 5 5 6 8 10 11 12 11 11 14 17 18 18 19 23 20 18 21 22 18 19 24 26 26 26 25 23 21 18 19 18 18 16 17 20
7 4 3 4 4 6 7 9 10 9 13 15 18 20 19 20 19 20 23 18 17 15 15 18 19 15 7 17 22 20 17 17 17 16 15 17 17 18
5 3 1 3 5 7 5 4 5 10 12 15 18 18 17 18 14 14 18 24 21 22 24 20 17 16 14 6 10 14 16 14 16 18 17 16 17 17
1 3 5 6 6 5 3 3 7 11 14 15 14 12 17 16 20 22 20 19 25 32 32 26 18 20 15 8 7 15 19 17 14 15 14 12 10 13
4 6 7 7 6 2 2 5 9 12 14 14 11 14 14 21 21 21 21 21 23 24 27 28 32 25 26 19 10 16 16 15 14 15 11 12 15 16
6 7 6 5 2 0 4 6 9 11 11 10 14 15 21 17 20 18 20 23 21 26 21 26 28 30 24 23 23 16 17 10 9 13 14 13 14 12
7 7 5 2 1 2 4 6 8 8 8 12 12 18 17 18 18 16 19 21 18 21 25 23 27 26 29 22 16 19 18 20 19 18 15 14 15 13
6 2 1 2 2 3 3 4 5 6 8 10 13 16 19 17 17 19 19 17 18 21 23 29 20 18 16 19 22 17 18 18 18 17 15 13 17 16
7 6 4 3 1 2 2 4 5 8 10 12 12 16 18 16 15 18 18 18 19 21 22 24 25 14 7 8 6 19 21 20 18 17 14 15 17 19
4 1 2 2 2 3 5 7 9 11 13 13 14 15 12 13 18 17 17 18 19 22 24 22 22 14 11 8 8 13 15 16 18 16 13 13 13 11
5 6 7 6 6 8 10 10 10 12 13 14 13 12 11 18 18 18 18 18 20 19 20 21 23 28 21 14 5 8 10 13 14 15 11 9 5 4
9 7 5 8 11 12 12 11 14 16 16 15 12 12 17 15 16 19 17 18 20 20 23 26 27 26 14 15 10 10 12 10 10 10 11 12 7 3
7 6 8 11 13 12 13 15 17 17 15 12 12 18 16 14 18 20 19 22 19 21 21 23 24 25 15 16 15 15 10 10 8 7 8 11 11 13

GFSNE_925_spd_090.txt.gz
Wind_Speed
40 38 36 36 29 28 27 23 14 4 6 9 13 14 16 16 14 13 14 14 16 18 20 22 22 22 24 24 26 28 27 27 26 26 27 26 22 22
38 38 38 37 31 32 29 25 22 17 3 13 14 13 12 14 15 16 18 19 20 21 22 22 22 24 24 26 28 29 31 29 27 27 27 26 25 23
38 39 41 38 34 36 30 25 24 22 11 12 16 17 17 18 18 18 19 20 20 20 20 20 23 24 25 27 28 28 30 32 32 30 29 29 27 24
40 38 38 39 34 36 32 28 26 23 21 15 19 19 19 17 19 21 20 19 19 19 20 24 25 27 28 29 29 29 30 33 34 36 32 30 28 26
38 39 39 39 33 31 26 26 23 20 20 19 17 14 14 16 18 19 18 19 20 21 24 26 26 28 29 31 31 31 31 33 34 32 31 31 27 27
34 37 35 36 32 29 25 23 20 19 19 16 14 13 13 14 14 17 21 23 25 25 27 27 27 29 31 32 32 32 34 33 33 31 28 27 25 28
30 28 25 23 23 19 18 17 17 18 15 14 10 8 11 13 15 14 21 24 25 25 20 19 20 21 23 26 29 28 31 31 28 23 25 26 27 28
30 24 20 17 13 12 12 12 13 14 12 9 10 11 13 15 16 17 18 14 6 10 8 17 24 25 28 28 30 30 27 27 28 26 25 24 24 26
22 19 18 17 15 14 12 13 9 9 10 10 11 13 13 14 15 17 18 18 15 20 20 24 21 27 30 29 27 24 25 26 23 21 22 25 27 25
17 16 14 13 11 11 8 6 8 9 9 9 10 11 12 12 14 17 19 23 23 22 19 20 19 26 30 31 26 25 25 24 22 24 25 24 22 21
16 15 12 10 5 5 6 6 6 6 5 5 6 7 11 11 12 15 15 15 19 20 17 20 21 23 25 31 27 21 24 27 26 25 22 21 21 21
13 10 6 4 2 2 3 3 3 3 5 6 8 11 12 12 10 9 11 16 18 16 10 14 17 13 9 20 14 16 21 25 24 22 20 19 19 19
10 9 6 2 1 3 3 2 3 3 5 7 9 10 10 13 13 12 14 17 17 20 20 18 17 16 14 15 22 20 20 24 22 19 18 19 19 18
8 4 2 3 3 2 1 2 3 3 6 9 8 6 9 9 12 18 18 18 19 25 31 26 22 19 19 16 14 18 21 19 19 20 19 19 19 18
6 4 5 6 5 3 5 4 3 5 7 7 6 8 9 12 14 15 17 15 22 25 24 23 22 29 27 24 15 17 16 24 26 24 20 20 20 19
6 6 4 1 4 6 4 4 4 6 6 6 8 9 11 12 13 14 16 16 21 24 17 21 21 22 28 27 26 21 21 11 18 24 21 17 15 18
5 4 2 2 4 4 4 4 7 7 6 7 8 10 11 13 15 14 14 17 16 20 24 26 25 24 26 27 19 22 19 22 24 19 17 16 17 17
4 2 4 4 5 5 4 3 4 5 6 8 11 11 15 15 16 14 15 15 17 19 22 22 24 25 22 20 30 18 20 20 20 18 16 13 14 16
8 7 3 2 3 4 3 5 6 8 11 13 13 15 17 16 13 15 15 15 17 18 19 21 19 17 9 10 13 28 20 21 20 15 16 15 15 15
10 9 7 6 6 6 7 9 11 12 13 14 15 16 16 12 15 15 15 15 17 20 22 19 16 15 13 8 9 11 28 21 18 18 14 11 12 11
11 10 10 7 9 10 12 13 12 13 15 17 18 17 14 14 19 16 15 19 18 18 20 21 20 23 26 22 11 11 19 19 15 16 11 9 7 4
12 11 10 12 14 15 14 13 15 17 19 20 19 15 14 18 20 18 20 17 18 19 21 25 23 21 20 14 15 9 14 15 14 12 11 12 6 4
15 15 16 16 16 15 17 19 20 20 20 19 19 20 22 21 18 17 20 17 18 20 20 22 22 20 19 18 19 9 13 13 10 10 13 13 13 13

GFSNE_925_spd_096.txt.gz
Wind_Speed
27 28 29 30 31 31 32 32 25 12 12 21 21 29 33 36 37 36 33 32 32 30 30 29 28 28 28 28 28 28 31 32 30 31 32 31 33 32
28 29 29 29 31 31 32 33 35 30 11 16 22 24 27 29 29 32 31 30 29 31 30 30 29 30 31 31 32 33 34 35 33 34 33 33 34 33
30 30 32 31 32 33 34 34 32 32 21 30 26 27 26 28 27 30 29 28 30 32 32 32 32 32 32 33 33 33 34 33 34 34 34 33 34 33
34 34 38 37 39 42 36 35 34 36 32 26 25 27 27 30 32 27 33 30 26 27 28 31 32 32 33 33 33 34 35 36 37 38 38 36 34 33
32 33 36 37 37 35 36 34 33 33 32 28 24 26 23 27 28 25 24 23 22 23 24 28 28 29 31 33 35 36 38 39 39 39 39 37 36 35
30 36 39 34 35 35 31 36 35 33 31 31 22 20 19 17 21 18 18 19 18 19 18 19 21 24 30 34 36 37 38 38 38 38 37 36 36 35
33 33 30 31 31 35 30 27 24 22 17 15 9 6 9 9 12 11 11 10 12 16 19 20 20 20 20 21 24 29 30 31 31 31 31 32 33 33
24 24 24 24 25 28 28 24 20 20 18 14 7 5 6 9 8 8 7 6 5 13 15 20 18 19 20 20 23 27 28 29 31 32 32 34 32 30
8 7 5 2 1 3 5 7 8 7 9 8 7 6 5 6 5 5 7 9 13 17 15 22 19 24 23 22 26 29 29 30 30 30 30 29 28 27
7 8 10 12 12 10 11 11 11 10 9 6 4 4 3 1 2 6 11 15 19 19 18 22 23 26 23 22 23 27 30 31 29 28 28 28 26 26
17 16 15 14 13 11 11 10 8 7 6 5 3 3 6 9 11 8 13 16 18 22 19 21 24 24 23 24 24 23 25 27 26 24 28 29 26 25
18 16 14 12 9 8 8 6 5 2 3 4 5 7 7 8 11 10 13 15 16 16 19 11 15 15 11 21 25 22 16 18 19 23 22 23 24 23
13 12 12 11 10 9 8 5 3 5 5 5 5 6 6 7 9 11 11 11 15 20 18 14 12 18 20 24 26 25 25 25 23 22 22 22 26 27
11 9 8 9 10 7 5 6 5 4 4 6 7 8 8 9 8 7 11 14 16 19 21 19 19 19 20 24 27 26 25 25 24 22 23 21 26 28
10 10 11 11 11 5 4 4 6 5 7 9 10 9 9 8 12 13 14 15 18 19 18 18 20 23 24 27 27 27 24 26 26 25 22 21 19 20
10 9 10 11 8 5 5 4 7 8 10 12 11 12 12 13 15 15 17 19 21 21 18 18 20 21 25 26 27 29 27 25 28 24 23 21 21 21
9 10 11 12 12 11 11 10 8 10 12 11 13 15 16 18 18 19 19 21 22 21 21 19 18 20 24 26 27 28 28 28 28 28 24 21 22 24
10 12 12 13 13 14 14 14 14 14 14 16 18 18 19 20 21 22 22 21 20 21 21 20 20 21 23 25 27 29 27 28 28 28 28 20 22 23
12 11 12 13 14 15 15 16 17 18 19 19 19 19 20 21 21 21 21 19 19 20 20 20 20 19 11 11 21 18 17 16 25 24 22 19 16 18
12 11 11 12 13 14 15 16 16 17 18 18 19 19 19 19 21 20 19 18 19 20 21 21 19 18 17 13 20 31 28 27 24 24 19 18 15 9
11 11 11 12 13 14 14 15 16 16 17 18 18 18 18 19 19 18 19 19 19 20 19 20 20 22 23 24 21 25 24 17 20 25 18 18 18 13
11 11 12 12 13 14 15 16 16 17 17 18 18 18 18 18 19 19 19 19 19 19 21 23 23 22 21 20 21 23 24 22 24 22 24 15 16 9
12 12 13 13 14 15 15 16 16 17 17 17 17 17 17 17 17 17 18 18 19 20 21 22 22 21 21 21 23 23 24 26 21 10 11 12 10 6

GFSNE_925_spd_099.txt.gz
Wind_Speed
24 25 26 24 25 25 26 28 23 11 14 27 25 29 36 38 42 41 44 48 49 48 46 45 44 42 40 39 37 35 35 35 33 31 29 29 28 29
27 26 27 26 27 27 29 29 30 30 16 28 28 34 38 40 43 43 50 50 51 48 48 46 43 40 39 37 34 34 33 33 33 34 33 33 33 32
28 29 30 30 30 27 28 31 36 35 23 35 31 29 39 43 42 40 45 41 42 47 45 46 41 40 39 37 35 35 35 35 36 37 37 33 32 33
32 32 32 30 30 31 34 34 34 34 32 30 31 29 33 39 42 35 36 39 39 36 41 42 40 39 37 37 36 36 35 36 37 37 38 37 35 33
31 31 30 30 34 34 33 31 30 33 33 31 32 26 28 31 34 33 31 30 26 20 18 30 34 33 33 31 32 32 34 36 38 38 40 40 41 40
27 32 36 33 27 25 29 30 32 29 27 25 25 21 20 19 19 15 13 16 20 17 16 17 15 16 20 26 30 34 39 41 41 42 43 42 42 41
28 19 15 17 21 20 20 21 20 23 22 21 13 8 8 7 11 11 13 12 16 21 18 15 14 20 23 24 32 37 41 41 38 36 35 34 34 33
6 5 7 11 12 13 12 11 12 10 9 5 3 3 3 2 6 7 9 6 3 9 12 14 12 16 24 23 28 31 27 28 28 29 28 28 29 31
7 8 10 12 11 10 12 14 17 15 11 7 8 8 6 5 3 2 1 2 3 6 11 15 19 23 25 27 29 31 31 33 32 31 30 30 31 31
16 17 16 18 17 14 14 14 14 13 12 10 7 4 2 3 4 6 8 12 16 18 17 16 19 24 26 28 29 31 34 34 33 32 32 30 29 28
20 18 16 16 14 13 13 12 11 10 11 11 9 8 8 9 10 10 10 11 13 13 14 21 20 23 26 28 28 29 30 33 31 30 30 28 24 26
16 16 18 16 15 15 12 12 11 9 10 11 10 9 10 8 10 8 11 13 14 11 6 9 9 10 7 14 26 26 23 24 24 26 26 23 23 22
12 12 14 16 15 13 13 12 11 12 12 12 11 11 10 9 9 9 10 9 11 15 18 17 11 16 14 14 22 25 24 21 22 22 23 28 26 24
15 13 13 17 16 11 10 13 14 11 11 12 14 14 12 12 10 14 16 17 16 19 21 20 18 21 21 21 22 23 24 25 24 24 24 26 24 23
13 15 15 13 15 10 14 11 12 12 14 16 16 14 15 16 17 17 17 18 19 20 21 21 21 20 21 22 23 24 24 24 23 24 25 24 24 20
12 11 12 13 13 13 14 15 13 13 14 16 15 17 19 20 21 21 22 23 23 23 24 23 22 21 21 22 22 24 24 23 23 24 25 25 25 24
10 11 13 15 15 15 15 15 16 17 18 18 20 22 21 22 23 23 24 25 24 24 24 25 24 24 23 24 23 24 26 25 25 27 26 27 27 25
10 12 13 15 16 16 17 18 18 19 20 22 21 21 22 23 23 24 24 23 23 23 23 24 25 24 24 25 25 26 26 27 25 27 27 25 26 22
13 13 14 15 15 16 17 17 18 18 18 18 19 20 20 21 21 22 22 22 22 23 23 24 24 22 12 11 23 23 21 27 27 25 20 20 23 31
15 14 14 14 14 15 15 16 17 17 17 18 19 19 19 20 21 22 22 21 22 24 24 23 22 21 19 14 22 30 28 29 25 23 23 23 24 21
14 13 12 13 13 14 14 15 16 16 18 18 18 19 20 20 20 21 21 21 21 22 22 22 24 26 27 27 21 23 23 25 25 25 23 20 22 9
12 12 12 12 13 14 15 15 16 17 17 17 18 18 18 19 20 20 21 21 22 22 23 24 25 25 23 23 22 25 25 25 27 26 26 26 25 1
11 11 12 12 13 14 14 15 16 16 17 17 18 18 19 20 20 20 21 21 22 23 24 24 24 25 24 25 25 25 27 27 22 23 25 10 16 14

GFSNE_925_spd_102.txt.gz
Wind_Speed
27 28 29 32 29 25 27 27 21 8 9 20 21 31 39 44 49 52 54 54 54 48 54 55 56 57 59 59 57 55 51 47 44 41 37 34 32 31
25 27 32 33 32 32 33 31 29 27 12 28 32 33 34 37 43 46 48 51 50 51 57 57 58 59 61 61 60 57 55 50 45 42 39 35 30 30
29 29 34 34 33 31 32 32 30 31 21 32 33 35 33 35 40 45 48 51 55 55 57 57 57 57 60 59 55 50 43 38 37 35 34 33 28 30
29 30 32 29 31 33 33 32 32 33 31 28 28 27 28 30 36 41 46 49 52 54 50 48 48 50 54 51 44 38 33 33 35 33 31 34 31 31
31 31 31 30 30 27 28 29 32 30 27 26 26 26 25 25 26 27 30 31 30 27 27 27 31 37 40 37 35 34 32 34 32 33 35 33 36 39
29 22 18 16 16 17 16 9 12 15 20 22 23 20 18 18 20 20 23 23 21 19 15 15 16 19 23 27 28 29 30 33 34 33 31 32 38 43
3 3 4 8 10 11 8 13 14 11 12 15 12 10 9 10 10 10 12 14 16 16 19 18 20 22 21 22 26 30 30 34 33 32 33 40 47 44
7 9 11 13 13 20 21 19 18 14 11 7 7 6 9 8 10 9 9 7 3 7 13 17 20 22 20 20 24 26 29 30 32 31 31 31 31 30
16 17 18 17 18 16 17 13 16 13 16 12 10 10 7 11 11 11 10 8 7 9 13 15 18 24 27 29 30 30 29 26 25 31 35 33 32 30
22 21 21 18 19 14 15 15 15 17 18 16 12 10 10 12 12 12 15 17 19 18 17 12 17 22 27 29 28 27 27 30 33 33 34 36 35 33
24 23 20 19 17 15 16 15 14 18 16 16 15 14 14 15 16 16 14 15 12 12 18 16 14 19 21 24 29 28 27 28 31 36 37 34 34 31
22 21 23 20 18 17 17 15 16 15 16 16 15 14 14 13 13 11 15 16 16 7 15 21 19 17 10 16 14 21 26 27 26 21 20 24 28 26
20 21 20 18 17 17 18 18 15 14 15 16 17 17 16 18 18 19 19 19 16 15 22 21 18 21 16 23 27 30 35 31 27 26 21 23 22 26
19 18 18 16 15 18 18 15 14 15 17 17 16 18 20 20 21 20 19 19 18 20 22 22 21 23 23 22 21 26 25 28 29 28 24 25 24 23
19 17 16 17 16 19 20 20 21 22 21 21 20 20 21 21 22 22 22 22 23 23 24 26 28 28 26 25 21 21 23 25 24 22 22 24 24 21
15 17 17 17 18 18 19 20 20 21 20 20 20 21 20 21 22 23 24 24 24 24 22 23 25 25 24 24 25 24 23 21 26 26 27 29 29 25
15 19 20 19 18 19 20 21 21 21 22 21 20 21 21 21 21 22 22 23 22 23 24 24 25 28 29 26 23 23 25 26 24 23 23 23 27 25
19 20 20 19 19 18 19 20 20 21 21 19 20 21 20 21 21 21 22 21 21 22 23 26 28 28 27 28 21 22 23 25 29 27 24 22 25 19
21 20 19 19 18 18 18 18 19 20 19 20 20 20 20 20 22 22 21 22 22 23 24 25 24 22 11 12 29 26 30 30 27 27 25 22 22 23
19 18 18 18 17 17 17 17 18 18 19 19 19 19 21 21 21 21 21 22 22 24 24 22 22 23 21 16 26 33 27 28 26 24 26 28 26 27
17 17 17 16 15 15 15 15 16 18 18 20 19 21 21 21 21 22 22 23 25 23 22 23 25 29 29 29 22 26 28 29 27 28 27 24 21 24
15 15 14 14 13 13 14 16 17 18 18 19 20 20 21 23 22 23 23 23 23 24 25 27 27 27 27 24 23 28 30 32 33 27 24 24 20 5
13 12 11 11 12 13 14 16 16 17 18 19 20 21 23 23 23 23 23 24 24 25 25 27 27 26 25 26 27 28 30 28 29 30 32 22 23 25

GFSNE_925_spd_105.txt.gz
Wind_Speed
29 31 32 30 28 26 26 25 20 9 9 22 24 32 35 37 37 38 43 46 48 52 52 53 55 58 58 57 59 55 55 55 54 54 53 51 47 47
34 34 33 33 33 33 32 34 33 27 13 26 29 31 29 27 34 37 39 42 45 46 47 48 50 55 58 60 58 61 61 62 56 51 48 47 46 44
32 30 32 32 34 36 35 35 32 29 22 31 32 36 34 33 32 35 34 39 44 44 46 45 49 51 53 55 57 61 59 54 53 53 51 47 43 37
32 31 34 33 36 38 36 34 32 32 30 29 32 30 21 23 25 29 34 33 38 39 41 43 45 46 47 48 49 50 51 51 52 50 45 40 36 28
30 31 30 28 25 24 19 14 11 13 11 13 8 14 11 16 16 17 19 22 24 26 27 29 32 34 36 37 38 37 36 37 36 35 34 33 33 32
22 17 16 15 14 12 8 6 7 11 7 12 12 9 8 14 16 16 20 21 24 23 21 19 19 20 22 23 23 24 27 30 32 33 36 37 37 39
9 7 7 9 10 8 6 9 9 9 11 12 12 9 13 12 15 17 15 21 21 13 18 18 19 20 21 22 21 20 21 24 26 29 31 37 42 45
14 12 12 14 18 19 18 19 19 17 18 12 12 9 14 13 16 17 15 15 6 11 25 23 26 24 24 23 23 23 24 24 27 29 31 35 35 34
18 18 19 19 16 16 17 19 23 23 21 18 15 12 9 14 17 16 17 15 13 23 21 17 20 23 24 23 24 25 26 27 27 27 28 28 30 28
24 22 21 19 16 17 16 17 20 20 20 19 17 14 15 16 16 15 13 16 15 15 20 7 17 19 26 24 21 19 18 17 15 17 21 30 36 36
25 22 22 21 17 15 15 16 19 20 18 17 15 14 14 13 18 20 22 18 12 14 17 20 17 28 24 22 21 25 27 31 32 33 31 29 26 22
27 25 23 22 20 20 21 21 23 21 19 18 18 17 17 18 21 22 22 17 17 9 19 21 20 21 11 13 26 28 33 34 31 27 26 25 25 27
24 23 22 19 18 19 22 24 21 16 18 17 18 18 20 22 23 22 21 21 18 15 22 23 20 21 19 32 26 27 30 32 33 31 29 24 24 22
25 23 20 19 22 22 23 20 18 18 18 19 20 20 19 19 19 19 19 20 20 20 23 21 23 21 22 21 23 28 28 28 26 27 26 28 30 28
25 24 22 20 21 23 22 22 21 21 21 20 16 17 17 17 18 19 20 19 19 19 18 20 22 21 22 21 22 27 30 27 23 28 26 25 27 27
19 20 21 21 21 21 22 22 22 22 19 17 17 16 17 18 18 20 21 22 21 22 20 22 23 24 25 23 24 24 23 19 26 24 33 29 28 27
19 21 23 21 21 21 20 19 21 18 18 18 18 17 17 18 19 21 20 20 19 22 24 24 25 25 23 23 22 21 25 26 27 28 25 25 25 24
24 24 24 22 19 19 18 18 19 19 19 18 19 19 19 19 20 19 19 19 19 21 23 26 28 27 25 19 16 25 27 27 29 27 25 23 26 25
24 23 21 19 17 16 16 17 17 20 19 20 20 22 22 19 19 19 20 20 20 22 23 23 24 23 12 13 27 22 29 30 29 27 25 24 26 28
22 21 19 17 16 17 17 18 17 17 18 19 20 21 22 20 21 20 20 21 23 23 22 23 23 24 23 17 29 37 25 29 27 27 27 27 28 29
17 17 16 16 16 15 14 14 14 16 17 19 20 21 23 25 21 20 21 22 24 22 23 24 27 29 29 31 24 30 33 30 29 30 29 25 23 23
15 15 14 13 12 12 13 13 14 16 18 18 20 23 26 26 22 22 22 23 23 23 25 27 29 29 27 26 26 32 36 38 35 28 25 25 21 5
11 10 11 10 10 12 12 11 13 14 16 19 23 26 28 26 22 21 22 23 23 25 26 28 29 27 27 27 30 32 34 36 33 33 33 20 20 23

GFSNE_925_spd_108.txt.gz
Wind_Speed
25 26 28 30 27 26 25 27 17 6 6 16 24 29 32 34 35 34 39 39 36 37 36 38 39 42 44 47 50 53 52 55 56 58 56 57 58 58
31 33 29 30 32 31 29 33 32 23 10 27 25 31 32 33 34 33 34 30 31 32 33 34 35 39 41 44 45 48 49 52 55 57 60 59 58 60
31 32 31 34 32 34 36 36 31 27 18 30 30 35 33 34 28 28 24 20 20 24 27 31 33 34 36 39 40 42 44 46 49 52 55 58 60 63
33 32 37 32 34 36 35 32 31 29 25 23 24 18 6 2 6 9 13 15 17 20 23 24 26 27 28 30 32 33 35 37 39 41 43 47 52 55
31 29 28 27 28 24 20 16 11 9 7 3 0 0 3 9 14 13 14 16 17 19 18 17 18 19 21 22 23 24 24 26 27 30 35 39 43 47
20 18 15 12 14 12 10 6 5 3 2 7 4 8 9 11 10 18 19 21 21 17 15 16 19 21 23 23 23 24 25 27 27 27 30 34 34 32
10 8 7 12 13 8 9 10 8 10 11 14 15 8 10 12 16 16 13 21 19 12 24 25 26 24 22 22 23 25 25 26 27 26 27 29 32 34
18 18 18 19 20 20 21 20 18 16 17 16 15 12 12 12 14 15 16 15 7 11 22 22 21 18 19 22 22 25 23 23 23 22 24 27 31 35
20 20 20 19 19 19 21 21 24 24 22 17 18 13 10 13 14 14 13 13 12 17 24 16 16 23 27 32 30 19 22 25 27 30 30 29 28 23
25 24 23 21 17 18 18 21 22 23 18 18 19 17 16 14 13 11 14 17 18 18 20 5 18 21 24 29 19 17 26 28 32 31 29 29 30 30
27 24 23 21 18 17 20 20 19 20 19 20 17 13 17 18 17 19 22 18 11 14 18 20 18 27 24 16 13 22 31 31 30 30 29 30 29 29
31 29 26 25 20 19 20 18 20 16 13 12 12 13 15 16 18 20 20 16 17 10 16 22 21 23 11 12 29 25 26 25 30 30 30 28 26 28
30 28 24 24 23 21 20 20 17 12 14 14 14 16 17 19 21 21 19 17 16 13 20 21 19 19 16 26 18 24 24 30 31 31 30 26 29 26
29 30 26 24 24 19 20 17 14 14 16 17 18 18 18 20 19 20 19 17 17 17 18 20 20 20 20 24 24 26 27 27 26 23 23 25 31 30
32 29 26 22 21 23 22 20 19 20 19 20 17 16 16 16 16 18 17 16 18 16 17 18 21 22 20 21 25 28 31 26 14 31 25 29 29 30
26 25 23 22 22 20 20 20 19 18 18 17 16 15 15 17 17 18 18 20 20 21 18 20 21 22 24 23 25 27 26 21 31 28 29 29 27 25
26 23 22 21 21 19 18 17 16 17 17 16 15 14 15 15 17 18 17 18 17 20 24 24 23 23 22 24 25 25 25 29 29 30 30 29 27 26
26 26 24 21 18 17 18 15 16 16 15 14 16 16 18 17 19 18 17 18 19 21 23 25 28 29 26 21 18 24 29 29 33 31 28 27 29 27
29 25 21 19 17 15 14 13 13 13 12 14 16 18 21 20 20 18 18 18 19 21 23 24 24 24 13 15 29 17 30 33 32 30 27 26 29 31
23 21 18 16 14 13 11 11 10 10 12 13 16 19 23 23 21 17 18 19 21 23 23 22 23 23 22 18 31 47 31 31 30 31 31 30 31 32
17 17 16 14 12 11 9 7 8 9 11 14 17 20 24 24 22 19 18 20 22 21 22 24 27 30 31 32 25 34 40 32 30 32 33 29 25 25
15 15 13 11 9 8 6 6 7 10 12 15 19 23 23 22 22 21 21 22 21 21 24 28 30 30 29 26 27 34 39 44 42 31 28 27 23 3
12 10 9 8 7 6 5 7 8 9 12 17 23 23 22 25 25 25 25 22 21 24 24 29 30 30 27 27 30 33 37 39 36 38 35 10 17 23

GFSNE_925_spd_111.txt.gz
Wind_Speed
31 26 22 20 17 19 24 17 13 4 7 19 24 25 24 26 30 30 31 32 35 35 31 30 28 28 29 29 30 30 31 32 33 36 38 43 48 53
25 25 26 26 25 24 26 27 25 20 8 23 25 25 27 27 26 26 27 28 25 21 21 22 21 23 27 29 29 30 31 32 34 35 36 37 41 46
21 24 29 29 29 30 29 25 26 26 15 29 25 25 18 14 14 12 9 7 7 10 13 18 19 20 22 23 23 23 24 25 29 31 32 33 35 36
24 28 30 26 28 29 28 28 24 21 19 20 18 5 4 4 3 5 10 13 13 16 14 15 16 17 18 19 19 20 21 23 23 23 25 26 28 31
24 24 23 21 22 20 19 18 17 15 13 5 2 2 4 10 12 14 14 14 16 14 15 18 20 20 20 20 19 19 20 22 22 24 25 27 30 31
17 16 15 15 15 15 12 10 8 5 1 6 6 8 12 14 14 17 20 23 21 11 18 23 25 22 20 20 22 25 26 22 26 25 25 25 25 28
12 9 5 4 6 6 4 5 7 9 11 14 13 9 10 12 14 15 13 22 12 14 26 28 27 23 24 25 25 27 24 25 25 25 26 28 29 28
19 20 21 23 24 23 21 18 15 16 17 18 14 14 14 14 13 16 16 14 8 15 27 30 23 24 28 30 32 28 20 22 25 28 30 29 29 29
26 25 25 24 23 24 25 25 25 23 21 16 22 15 17 15 14 17 18 13 10 20 24 15 15 24 30 38 30 19 20 25 28 29 29 30 31 32
26 26 27 24 22 22 23 28 28 24 19 21 20 19 17 14 15 15 15 18 20 15 20 6 19 20 28 28 13 16 25 28 31 30 32 33 32 31
29 27 27 25 21 19 21 24 25 22 20 20 20 17 16 18 18 19 23 20 10 13 14 21 18 28 22 13 11 20 26 31 31 35 35 33 32 32
31 28 24 25 21 19 22 21 23 18 12 11 13 14 17 16 19 20 19 16 15 8 14 21 22 24 12 12 22 26 36 26 33 30 32 29 28 28
28 28 25 25 25 23 22 22 18 14 13 14 17 17 17 18 19 19 17 14 15 11 16 21 18 19 16 26 21 28 25 33 31 33 28 26 29 32
30 30 26 24 25 23 25 21 17 16 17 17 16 15 16 19 19 18 16 14 14 14 17 18 19 21 22 26 27 27 35 30 29 31 24 33 35 31
33 29 26 23 21 25 24 21 19 20 18 17 16 17 18 16 16 19 18 16 20 18 17 18 21 23 23 25 30 35 33 36 27 20 34 32 32 32
30 23 22 23 21 20 20 21 19 18 19 19 18 17 17 18 19 20 20 23 24 26 23 19 20 22 27 27 28 35 33 23 34 32 33 35 32 28
28 23 19 18 19 16 15 15 17 18 20 18 18 17 18 20 22 22 20 19 16 20 25 27 24 24 25 26 31 31 33 32 32 32 34 35 33 29
27 23 19 17 14 12 13 17 19 17 16 14 15 17 19 20 21 21 19 17 18 21 24 26 29 31 30 23 21 26 33 30 34 35 32 31 36 32
26 22 20 16 14 15 16 16 17 14 12 13 14 17 20 19 20 21 19 18 19 20 23 24 23 23 12 15 26 15 31 38 38 34 30 29 32 37
21 20 18 16 15 14 15 14 12 10 10 13 15 17 17 19 21 21 20 19 20 23 22 21 21 22 22 17 32 56 34 34 34 35 34 32 32 35
17 17 15 14 14 13 12 10 8 9 11 13 15 16 17 20 22 21 20 22 21 19 21 25 27 30 31 32 27 37 44 34 31 34 36 31 27 26
15 15 14 11 10 10 8 6 6 7 9 12 16 17 19 20 20 21 22 21 20 19 24 29 30 30 29 25 29 35 43 49 45 28 21 22 19 4
14 12 11 9 7 7 5 6 6 7 9 14 16 17 20 22 19 20 22 24 23 25 25 28 32 30 28 27 29 33 38 39 33 32 24 19 10 11

GFSNE_925_spd_117.txt.gz
Wind_Speed
36 32 30 24 22 20 14 14 10 3 3 1 3 2 5 12 14 17 14 14 19 16 13 10 7 4 4 6 7 9 11 14 17 22 23 24 24 22
35 33 32 26 21 18 18 12 8 7 2 5 1 8 9 8 8 8 4 3 6 6 6 4 5 7 8 9 10 11 13 13 13 15 15 16 17 19
36 36 32 27 25 22 21 22 18 15 10 8 9 7 7 7 7 7 6 3 4 8 10 13 12 11 12 12 13 13 14 15 18 17 17 17 19 21
40 36 33 32 34 35 30 26 26 26 19 14 9 7 7 7 6 5 6 5 4 6 8 11 12 14 12 12 14 16 17 17 14 15 18 20 22 23
39 38 36 35 33 31 30 26 26 25 22 18 7 7 6 5 4 4 6 7 3 4 9 13 11 10 12 15 18 20 21 17 13 15 18 21 23 24
33 34 32 35 31 31 29 29 23 19 15 13 9 9 7 5 6 8 9 9 3 5 12 17 14 13 16 20 21 20 18 14 16 19 20 22 26 27
33 31 26 26 27 25 23 17 16 14 12 11 11 11 10 9 8 9 9 9 3 9 15 13 11 13 14 19 19 19 17 15 19 22 27 31 30 28
32 25 19 17 17 17 17 16 14 15 16 18 19 19 15 10 11 13 13 8 3 11 17 13 11 17 17 20 21 18 17 19 24 29 28 31 29 31
29 28 26 25 23 24 25 26 25 22 21 21 24 14 14 12 9 12 11 8 6 10 16 9 14 17 20 19 19 17 18 26 30 29 31 30 33 35
29 29 30 29 28 32 34 34 32 30 27 27 26 22 17 13 12 10 9 9 4 5 15 7 17 19 21 19 17 19 25 33 30 33 32 34 37 35
30 29 30 31 29 29 34 39 36 33 27 27 27 24 20 19 16 11 13 13 6 7 12 16 15 23 16 12 13 20 29 28 32 32 34 35 34 36
35 33 30 33 28 28 31 32 30 20 19 18 19 19 18 17 18 16 12 11 9 5 13 16 17 21 10 7 22 26 28 25 30 34 32 32 33 33
34 33 30 28 28 26 27 28 28 22 19 17 17 16 15 15 14 13 12 10 9 5 11 12 13 15 14 25 23 28 21 31 31 30 28 29 32 35
36 35 32 30 30 28 28 26 24 22 18 17 16 16 14 14 12 11 10 10 6 6 9 9 10 16 19 24 24 25 31 30 27 29 29 36 33 33
39 36 34 32 31 31 26 24 22 21 20 18 17 15 12 11 11 11 11 12 9 5 9 9 12 16 19 21 28 28 34 35 19 32 32 33 36 36
39 34 33 32 30 28 27 24 20 17 17 17 15 12 10 11 12 13 14 16 14 11 10 11 13 17 24 20 25 28 24 21 39 33 35 35 33 29
40 34 29 24 21 20 21 19 17 15 16 14 13 12 11 10 11 12 12 12 12 17 21 19 17 18 18 23 23 22 25 26 28 33 34 35 34 28
31 25 22 20 19 18 19 17 15 14 14 13 12 11 10 11 10 10 11 12 14 16 17 20 23 25 28 16 6 14 20 26 31 30 28 29 32 34
27 23 22 19 19 18 17 15 15 13 13 12 11 11 10 9 10 11 13 14 15 14 14 16 19 21 18 12 15 11 18 30 32 34 28 27 28 32
20 21 20 18 17 17 15 14 13 11 10 10 10 10 11 9 10 11 11 13 15 14 16 16 17 18 17 14 19 30 26 24 25 30 33 32 20 22
18 18 17 17 16 16 15 14 12 11 10 9 9 10 11 8 8 8 10 12 13 14 16 17 18 18 16 17 17 25 28 22 19 22 26 23 23 24
17 17 16 16 17 16 15 13 11 8 8 8 8 8 8 6 6 8 11 13 13 14 15 18 19 17 15 15 19 23 26 27 24 18 17 18 16 11
16 16 16 16 15 13 11 10 8 8 6 5 5 7 7 5 7 8 10 11 12 14 17 21 19 17 16 16 18 20 22 20 21 20 16 16 14 15

GFSNE_925_spd_120.txt.gz
Wind_Speed
31 31 29 26 21 20 17 23 18 5 5 6 4 6 11 8 6 4 4 8 13 11 7 6 2 1 2 3 6 8 10 10 12 14 15 17 19 20
30 32 30 23 22 20 20 18 15 9 4 11 7 12 9 7 4 4 4 2 5 5 4 5 6 7 7 9 10 11 11 14 14 14 16 17 19 21
32 33 31 27 29 27 24 19 13 13 7 5 13 12 9 8 7 6 3 2 3 7 10 7 7 8 10 11 12 14 16 17 16 14 17 18 19 21
34 32 31 30 33 31 27 21 20 20 19 15 13 10 8 8 8 7 7 4 2 5 8 9 10 9 10 11 14 16 17 15 11 14 16 19 20 22
35 36 35 36 32 27 28 26 26 27 23 17 7 10 9 10 8 8 9 4 3 5 7 9 8 8 10 13 14 16 15 13 13 16 18 21 24 26
39 37 33 38 34 32 26 25 24 24 25 19 12 14 14 10 9 7 6 4 2 4 8 10 10 14 15 16 13 15 14 12 15 19 23 26 27 28
30 32 33 31 32 29 28 27 29 27 19 18 16 15 12 9 7 6 5 3 4 7 9 4 6 8 9 12 13 15 14 14 19 23 25 25 28 29
35 31 28 31 29 31 30 24 21 23 23 17 12 17 14 14 10 9 7 3 2 6 8 2 6 10 11 13 16 16 18 17 22 26 26 28 30 30
34 34 31 28 27 26 24 23 21 17 15 21 27 19 15 10 10 9 7 5 5 5 9 4 11 12 15 16 16 17 18 22 27 27 30 31 33 36
31 32 35 30 28 30 33 36 34 31 28 28 27 24 19 13 10 8 6 5 5 5 12 4 11 14 17 14 14 17 22 28 28 30 32 35 36 36
31 31 34 34 32 35 37 43 39 36 31 31 29 26 21 17 13 10 11 8 4 4 9 10 10 16 12 11 14 20 25 26 28 30 33 33 33 35
35 34 32 34 32 32 38 40 36 27 25 24 24 22 19 19 17 14 11 9 6 1 7 10 10 14 7 10 20 19 22 21 26 26 26 26 28 33
34 33 32 31 32 32 33 34 33 29 24 21 19 17 15 14 14 12 10 8 6 4 8 8 8 11 10 17 18 22 20 26 24 23 22 27 30 28
36 35 33 33 34 34 35 31 28 27 23 19 17 16 15 13 10 8 7 6 4 2 5 6 6 11 15 21 20 23 23 23 20 21 28 28 29 29
41 40 37 36 34 32 29 25 24 21 20 19 17 14 12 10 8 6 6 7 5 4 7 7 9 12 14 16 20 23 24 23 14 27 28 27 28 29
42 35 35 36 34 29 24 21 19 18 18 18 15 12 10 9 9 9 9 9 5 6 7 8 10 13 15 14 16 20 18 15 24 24 27 26 24 25
45 38 29 26 24 23 21 20 18 17 17 15 14 11 10 8 9 9 9 9 9 10 10 10 12 13 13 15 14 13 17 19 22 25 27 27 25 26
30 27 24 21 21 21 19 18 16 16 14 13 12 10 10 9 7 7 8 9 10 12 13 14 17 17 14 5 8 12 15 20 23 25 25 26 25 26
27 24 22 20 20 19 18 17 16 13 12 11 11 9 8 6 6 7 9 10 10 11 12 13 14 16 14 8 9 10 13 24 26 26 24 26 27 26
23 23 22 19 19 18 17 16 14 12 11 10 9 7 6 5 6 8 9 10 11 11 11 11 12 13 12 12 14 20 21 19 21 25 24 25 23 22
21 21 19 19 19 17 15 14 13 12 10 8 7 6 5 5 5 7 8 10 12 11 12 13 14 15 13 14 16 19 21 19 18 20 21 21 22 19
19 19 19 18 17 16 14 12 12 10 8 7 6 4 4 4 5 7 8 10 11 13 13 15 14 13 12 13 16 20 22 25 20 17 16 12 13 11
18 18 17 17 15 13 11 10 9 8 6 5 4 4 4 4 5 6 8 9 11 13 14 16 15 12 13 13 15 18 20 18 18 17 15 16 16 15

GFSNE_925_spd_123.txt.gz
Wind_Speed
35 31 27 24 23 19 19 18 20 9 9 11 6 9 12 13 11 7 5 3 3 3 2 1 1 1 2 5 6 7 9 10 11 13 15 15 17 19
34 35 29 24 25 19 18 17 18 18 6 12 5 16 13 14 11 10 8 7 8 6 4 4 5 7 8 9 10 11 12 13 12 12 14 16 17 19
30 31 30 27 24 20 19 19 20 20 14 7 11 15 13 13 13 11 10 7 8 5 4 5 7 7 7 8 9 11 12 11 10 12 14 17 19 21
29 29 31 28 25 21 22 27 27 24 16 15 14 11 11 12 14 10 9 7 6 4 4 6 7 7 6 8 9 11 12 9 9 14 16 19 22 23
32 32 33 31 28 26 26 26 23 22 15 14 10 15 11 14 14 14 9 6 4 3 4 5 6 7 10 13 10 14 13 11 13 16 18 20 21 22
38 35 33 32 31 29 30 31 20 15 19 22 17 17 19 17 17 14 10 5 5 3 4 5 8 12 10 14 12 17 13 13 14 17 20 21 21 24
34 35 33 31 30 30 33 22 21 28 24 24 17 13 14 15 11 8 7 6 6 6 6 4 8 6 4 6 10 12 14 13 15 19 22 22 24 25
37 33 34 38 35 33 24 20 32 33 27 20 13 16 15 16 14 12 13 6 3 4 5 4 4 5 6 7 11 11 12 15 19 22 21 23 25 27
34 34 34 30 32 30 29 29 20 21 24 26 30 24 22 19 18 16 12 10 6 3 4 2 5 6 9 9 10 10 13 18 19 20 22 25 27 28
30 29 33 31 29 32 30 30 29 26 23 26 26 26 25 21 17 15 14 12 9 8 8 2 6 10 10 7 8 13 19 18 20 22 25 26 28 30
28 28 32 34 35 39 41 44 42 38 33 33 32 28 24 20 17 16 13 10 5 4 6 4 6 12 9 5 9 17 19 18 22 24 25 26 27 31
33 31 31 34 36 37 42 45 41 32 36 34 31 27 23 20 16 12 11 9 5 5 5 4 6 10 7 4 16 17 18 20 22 22 21 22 24 27
34 33 31 30 31 34 37 39 40 37 34 30 27 24 22 17 14 12 10 8 6 7 5 5 4 8 6 10 14 11 19 19 19 17 21 19 22 21
34 33 33 33 35 37 40 37 36 34 30 28 24 20 18 13 11 9 9 7 6 4 3 4 2 7 10 12 9 17 17 16 13 21 20 21 21 21
39 39 38 39 38 37 32 28 31 30 25 22 20 17 14 12 10 8 8 6 4 6 3 3 5 7 8 10 14 16 19 17 14 18 20 24 24 24
44 38 37 39 37 35 29 25 21 18 19 19 18 15 12 10 10 8 7 7 4 4 4 4 6 8 11 11 12 14 13 11 18 18 21 23 22 20
42 38 34 31 29 26 23 21 19 18 18 17 16 14 12 10 9 8 8 7 6 7 7 7 10 10 11 12 13 10 12 13 16 19 22 23 23 24
31 28 26 25 25 23 22 20 18 17 16 15 14 12 11 9 9 9 9 9 8 7 8 9 11 13 11 7 7 9 11 14 18 20 20 22 23 25
29 24 22 22 22 21 20 19 18 15 14 14 13 11 10 9 8 9 9 9 10 9 8 9 10 12 11 6 11 8 11 18 21 22 21 20 24 27
24 23 21 21 20 20 19 19 17 15 13 12 11 10 9 8 8 7 8 9 9 10 10 10 10 11 11 11 13 20 15 14 18 20 21 22 23 23
22 22 20 20 19 19 19 17 16 13 12 11 10 9 8 7 7 6 7 8 9 10 11 12 13 15 11 13 14 17 19 16 17 23 22 21 18 21
21 21 20 18 18 17 16 15 15 13 11 10 9 7 6 6 5 5 7 8 10 11 11 13 13 12 12 12 16 19 21 24 21 18 15 15 14 13
20 19 19 18 17 16 15 14 12 11 9 8 7 5 5 4 5 5 6 7 9 11 13 15 14 12 12 13 15 17 19 19 20 20 19 18 21 23

GFSNE_925_spd_126.txt.gz
Wind_Speed
37 38 38 37 29 33 31 33 28 8 7 9 7 14 20 20 16 13 11 10 9 7 6 4 4 5 5 2 3 4 6 9 11 12 13 14 16 17
34 37 39 24 33 24 23 35 31 26 6 10 7 19 18 17 15 14 13 12 9 9 7 7 6 5 5 5 6 7 8 9 11 12 13 14 16 17
35 39 36 34 22 21 21 26 30 30 15 9 18 19 17 17 16 16 13 10 10 10 8 7 5 6 7 7 6 7 7 7 9 11 13 15 16 17
34 29 31 31 28 25 24 22 29 30 27 20 21 17 19 16 16 14 13 10 8 7 7 7 5 6 7 6 7 11 8 8 10 12 15 16 16 18
35 40 38 36 33 31 26 25 27 26 28 25 18 19 20 19 18 14 12 10 8 7 7 6 6 8 11 9 10 12 8 9 9 12 15 17 17 18
34 35 38 38 35 33 30 31 28 28 27 31 22 20 19 21 19 19 15 10 7 6 6 7 6 6 9 6 7 10 8 8 10 13 15 15 17 19
35 40 34 39 39 37 37 37 36 33 30 25 17 11 15 22 22 18 15 12 9 7 6 7 6 4 4 1 7 9 8 10 12 14 14 16 18 19
33 33 35 34 34 35 36 37 33 28 18 14 11 12 16 21 21 22 22 11 4 6 8 8 2 3 2 2 6 8 9 12 13 14 16 17 18 19
35 41 34 33 38 38 38 36 31 25 23 25 29 23 24 25 26 23 18 15 9 8 11 8 1 1 4 4 5 8 11 12 13 14 16 16 18 20
29 34 43 38 38 40 36 29 23 16 16 20 24 21 22 26 23 24 23 20 16 10 5 3 3 5 5 5 3 8 11 12 12 15 15 17 19 23
21 25 33 32 29 36 39 39 36 34 27 28 30 32 30 27 26 24 20 17 9 4 7 4 4 7 3 3 4 8 11 13 14 14 15 17 20 19
27 26 27 32 33 33 35 43 41 34 41 39 35 33 29 25 20 17 14 11 9 5 4 3 4 7 3 1 8 11 16 15 16 17 18 19 17 23
32 30 28 30 32 35 38 38 44 45 41 39 36 32 28 24 19 15 16 13 11 10 4 6 4 5 4 5 8 10 14 16 14 20 20 16 16 19
34 34 33 33 35 37 42 41 38 40 37 32 30 26 25 21 17 15 13 13 11 11 5 6 5 5 5 6 5 14 14 16 11 18 20 18 20 22
38 39 40 42 42 40 35 33 37 35 32 29 26 23 22 19 17 15 14 12 13 11 8 7 5 4 4 4 8 11 15 16 13 18 21 22 25 27
45 38 37 40 40 38 34 33 30 27 28 28 27 24 21 18 17 14 14 12 10 7 7 8 9 7 8 7 8 12 13 10 18 21 22 24 25 23
42 36 35 33 31 30 29 29 27 27 26 24 24 22 19 18 16 14 13 11 12 8 7 6 7 8 7 9 9 9 10 12 16 20 22 24 25 22
36 33 29 29 28 26 25 25 23 24 24 23 22 21 19 17 16 14 13 12 10 8 8 7 10 12 10 6 1 5 9 13 18 19 19 22 24 26
35 30 28 26 26 26 24 23 23 21 22 23 22 20 19 17 15 14 12 11 9 9 8 9 11 12 9 2 8 5 14 16 18 21 22 22 26 28
31 30 28 27 25 25 25 24 23 23 22 22 21 19 16 16 14 13 12 11 9 9 9 9 10 10 7 4 5 16 14 15 19 21 25 25 25 23
28 28 25 25 25 25 25 24 24 23 21 21 19 18 15 14 13 11 9 9 10 10 10 11 11 10 11 10 10 16 19 15 16 20 23 23 20 22
28 27 25 25 25 26 26 26 25 23 20 18 16 16 13 13 11 9 8 8 9 9 10 11 12 12 12 11 15 18 20 22 19 19 15 15 20 11
25 26 26 25 25 26 22 21 22 21 18 16 12 14 12 10 10 7 6 7 8 9 11 12 13 13 14 14 15 17 21 23 20 25 23 17 18 19

GFSNE_925_spd_129.txt.gz
Wind_Speed
42 46 40 39 32 32 32 34 28 8 8 10 7 18 26 26 24 22 21 19 19 18 14 11 8 9 9 9 8 8 11 9 8 10 10 11 11 11
29 36 35 38 34 30 33 36 33 28 9 10 7 25 26 26 24 24 23 21 15 13 12 12 12 11 8 7 6 9 7 6 9 9 10 11 11 12
34 36 35 36 41 23 30 34 32 29 13 8 23 27 25 28 26 23 21 17 16 13 11 10 8 7 7 8 7 7 5 6 7 8 10 11 12 13
29 26 35 35 37 34 23 33 34 33 29 21 24 20 24 24 25 24 21 17 14 12 11 10 10 9 10 8 7 5 5 5 8 8 9 10 11 13
31 31 29 37 38 31 20 25 35 37 37 28 18 20 22 24 25 21 18 16 14 13 12 12 14 10 10 8 8 6 5 5 6 8 9 9 11 13
32 33 36 37 36 35 28 23 30 37 34 31 25 22 22 24 25 25 20 17 15 12 10 12 13 10 7 6 5 6 4 5 7 7 8 9 11 12
31 35 35 38 42 40 33 24 32 33 33 28 26 19 23 25 26 24 18 17 13 12 13 12 10 9 7 6 0 3 3 5 6 7 9 10 10 12
30 33 36 46 48 39 35 31 29 31 28 21 22 24 27 28 31 30 26 15 6 14 15 12 9 10 10 5 1 3 6 6 8 9 9 9 11 13
29 32 30 40 45 43 36 34 34 29 30 38 42 32 30 39 35 29 24 20 10 19 19 12 9 9 5 4 3 5 6 7 6 7 8 10 13 11
24 25 30 32 46 46 36 32 33 32 34 33 34 29 22 28 28 31 28 24 22 17 14 6 8 7 6 8 5 3 4 5 6 7 10 10 9 8
10 16 23 29 37 43 39 35 33 28 19 21 21 21 20 24 27 33 32 28 9 7 8 7 6 6 11 11 3 4 5 7 8 9 7 8 7 10
17 14 16 24 29 41 43 43 40 33 40 40 40 39 34 32 30 27 29 19 16 6 10 7 9 8 6 6 4 5 7 6 7 7 11 8 10 13
27 26 25 28 29 32 38 38 43 42 40 43 41 37 32 28 23 20 17 17 15 7 12 10 8 7 5 3 7 5 7 7 8 10 10 9 9 13
32 29 27 28 33 36 38 44 47 46 42 37 34 30 30 27 21 20 18 15 11 16 12 9 9 8 6 4 2 2 8 7 10 13 15 11 9 10
36 36 36 39 41 42 41 40 41 38 34 31 28 26 27 26 25 24 21 21 20 18 14 12 13 11 7 4 1 2 9 7 10 17 17 14 16 16
46 37 36 38 39 40 36 32 32 31 32 32 30 28 27 25 24 24 24 20 20 16 14 12 10 6 4 3 1 3 6 7 15 17 16 14 13 13
44 37 34 35 33 31 31 31 32 32 31 29 30 29 25 24 22 19 17 17 18 14 11 8 5 1 1 3 4 2 5 10 10 14 16 19 15 16
36 33 29 27 30 30 29 28 28 28 27 28 26 25 25 24 24 21 20 19 18 14 11 8 8 7 8 6 6 3 5 9 12 13 15 19 21 16
32 30 29 27 28 29 29 28 26 26 30 29 28 27 27 26 24 21 19 18 17 15 14 10 11 14 7 2 3 5 11 13 16 18 18 19 22 21
29 28 29 28 27 28 28 28 28 28 28 30 29 27 25 25 23 22 18 18 15 13 12 10 10 10 6 1 4 9 8 13 14 18 20 19 20 18
31 31 29 30 29 28 26 28 29 30 31 29 26 24 23 24 23 19 18 15 14 12 11 9 6 5 6 4 5 10 14 11 11 15 16 18 15 18
33 32 30 30 30 32 31 31 31 29 28 26 24 22 20 19 19 17 15 14 12 10 7 5 3 5 7 7 11 16 16 17 11 15 9 7 8 6
30 31 32 34 34 32 29 28 28 27 26 23 23 22 20 19 16 14 13 11 9 7 7 6 9 9 10 12 11 16 17 15 19 21 10 10 9 11

GFSNE_925_spd_132.txt.gz
Wind_Speed
34 35 34 32 32 35 32 34 26 9 6 11 8 24 27 27 29 30 29 27 29 26 24 21 17 14 13 11 12 15 10 7 8 8 8 8 9 9
33 34 36 35 35 36 36 34 33 25 10 7 7 27 30 29 29 30 29 27 26 25 22 19 16 15 13 12 11 9 8 8 8 7 7 8 8 8
30 33 32 38 41 40 34 35 33 27 14 7 18 31 31 32 30 30 29 26 24 20 18 18 15 13 12 12 11 9 10 8 6 5 6 7 8 8
30 28 28 31 35 38 34 35 34 29 27 20 27 23 29 32 33 30 27 23 21 19 16 13 14 13 13 12 12 10 7 4 4 3 3 4 6 8
27 28 28 31 30 31 34 31 32 29 33 27 21 23 23 30 32 27 26 22 20 18 16 13 14 14 14 12 10 7 5 4 3 2 3 4 6 7
28 30 30 30 30 38 31 32 31 31 32 32 25 25 26 31 31 33 25 23 21 19 16 17 14 15 13 11 7 5 3 2 2 3 3 4 5 5
29 29 31 32 34 29 35 31 34 34 32 30 27 24 21 30 30 26 21 27 20 19 18 19 16 15 12 10 5 2 2 2 3 4 3 3 5 6
28 31 30 33 34 37 36 37 38 38 34 28 25 30 30 30 30 34 31 19 8 21 22 18 15 15 12 10 5 4 4 4 4 2 1 5 5 6
29 30 30 31 31 41 43 43 46 44 52 49 36 37 32 44 47 35 28 21 11 27 24 14 16 16 13 10 8 5 4 3 1 3 3 4 3 4
26 27 29 31 32 32 33 42 46 45 44 46 48 47 41 48 43 36 35 26 19 29 18 9 19 14 11 12 8 5 5 3 4 3 1 1 1 1
16 17 20 23 26 33 41 37 32 29 32 37 34 36 36 40 45 37 33 34 10 13 16 12 15 12 16 16 11 7 6 6 6 2 2 1 2 1
10 9 10 17 21 28 39 44 35 31 35 33 30 30 28 32 32 32 38 29 21 7 19 9 20 14 7 12 10 7 8 8 5 1 0 2 2 2
16 13 11 14 25 26 29 33 43 41 40 39 40 37 33 32 29 32 32 30 23 7 26 14 19 16 6 8 13 9 6 10 5 1 1 2 2 5
24 22 23 24 23 27 29 40 46 44 41 38 31 35 37 33 29 26 23 17 8 13 30 13 14 16 10 7 7 10 8 7 2 5 5 3 3 3
27 30 34 35 38 39 41 44 42 43 42 36 32 29 32 33 31 29 25 24 25 21 16 11 16 15 13 12 10 9 9 4 3 8 4 4 4 4
41 34 35 35 37 35 35 35 35 33 34 34 33 31 30 31 33 30 32 30 30 24 19 16 14 13 13 11 11 8 4 2 4 7 7 6 3 5
41 35 31 29 29 29 28 30 32 32 33 31 31 30 29 30 29 30 26 21 22 20 15 12 9 8 7 9 6 4 2 1 3 7 10 11 5 8
32 29 27 25 26 27 27 26 27 29 30 31 28 27 27 26 26 25 25 25 24 19 16 9 8 13 10 9 6 5 2 2 5 6 10 13 12 7
30 27 28 27 26 26 27 29 29 29 30 29 27 26 27 29 28 27 26 24 23 20 15 11 11 10 4 1 4 3 4 6 8 9 9 11 16 13
27 29 30 30 30 29 29 31 30 30 31 29 28 29 29 30 28 26 24 24 23 19 15 11 10 9 4 4 1 1 4 7 8 10 12 13 14 12
26 30 29 31 31 33 33 33 32 30 30 31 31 30 28 30 27 25 21 18 16 13 12 9 6 5 5 5 3 6 5 5 6 8 12 13 11 11
27 28 30 31 34 33 33 35 35 33 32 31 30 29 28 27 25 22 19 18 14 11 11 8 6 5 7 7 7 9 10 9 5 8 7 7 8 4
30 29 29 32 32 32 32 32 32 31 31 30 28 26 25 25 21 19 17 15 12 10 9 9 8 8 8 8 8 11 9 12 13 15 3 6 5 7